Time,TemperatureF,DewpointF,PressureIn,WindDirection,WindDirectionDegrees,WindSpeedMPH,WindSpeedGustMPH,Humidity,HourlyPrecipIn,Conditions,Clouds,dailyrainin,SoftwareType,DateUTC
2013-09-26 00:00:00,57.9,50.0,29.83,East,97,8.0,9.0,75,0.00,,,0.00,Wunderground v.1.13,2013-09-26 05:00:00,
2013-09-26 00:02:00,57.8,49.9,29.83,ESE,107,8.0,9.0,75,0.00,,,0.00,Wunderground v.1.13,2013-09-26 05:02:00,
2013-09-26 00:04:00,57.8,49.9,29.83,SE,130,7.0,10.0,75,0.00,,,0.00,Wunderground v.1.13,2013-09-26 05:04:00,
2013-09-26 00:07:00,57.7,49.8,29.83,ESE,105,7.0,11.0,75,0.00,,,0.00,Wunderground v.1.13,2013-09-26 05:07:00,
2013-09-26 00:09:00,57.6,49.7,29.83,East,99,8.0,11.0,75,0.00,,,0.00,Wunderground v.1.13,2013-09-26 05:09:00,
2013-09-26 00:11:00,57.6,49.7,29.83,ESE,103,8.0,9.0,75,0.00,,,0.00,Wunderground v.1.13,2013-09-26 05:11:00,
2013-09-26 00:15:00,57.5,50.0,29.83,ESE,113,8.0,9.0,76,0.00,,,0.00,Wunderground v.1.13,2013-09-26 05:15:00,
2013-09-26 00:16:00,57.5,50.0,29.83,ESE,102,8.0,10.0,76,0.00,,,0.00,Wunderground v.1.13,2013-09-26 05:16:00,
2013-09-26 00:17:00,57.5,50.0,29.83,ESE,111,8.0,11.0,76,0.00,,,0.00,Wunderground v.1.13,2013-09-26 05:17:00,
2013-09-26 00:18:00,57.4,49.9,29.84,ESE,114,8.0,11.0,76,0.00,,,0.00,Wunderground v.1.13,2013-09-26 05:18:00,
2013-09-26 00:21:00,57.4,50.2,29.84,ESE,114,8.0,8.0,77,0.00,,,0.00,Wunderground v.1.13,2013-09-26 05:21:00,
2013-09-26 00:22:00,57.4,49.9,29.84,ESE,107,8.0,8.0,76,0.00,,,0.00,Wunderground v.1.13,2013-09-26 05:22:00,
2013-09-26 00:24:00,57.4,50.2,29.84,ESE,114,8.0,8.0,77,0.00,,,0.00,Wunderground v.1.13,2013-09-26 05:24:00,
2013-09-26 00:27:00,57.3,50.1,29.84,ESE,106,8.0,8.0,77,0.00,,,0.00,Wunderground v.1.13,2013-09-26 05:27:00,
2013-09-26 00:28:00,57.3,50.1,29.84,ESE,117,8.0,8.0,77,0.00,,,0.00,Wunderground v.1.13,2013-09-26 05:28:00,
2013-09-26 00:29:00,57.3,50.1,29.84,ESE,117,7.0,9.0,77,0.00,,,0.00,Wunderground v.1.13,2013-09-26 05:29:00,
2013-09-26 00:34:00,57.3,50.5,29.84,East,100,8.0,8.0,78,0.00,,,0.00,Wunderground v.1.13,2013-09-26 05:34:00,
2013-09-26 00:35:00,57.3,50.1,29.84,ESE,120,8.0,11.0,77,0.00,,,0.00,Wunderground v.1.13,2013-09-26 05:35:00,
2013-09-26 00:36:00,57.3,50.1,29.84,ESE,121,8.0,11.0,77,0.00,,,0.00,Wunderground v.1.13,2013-09-26 05:36:00,
2013-09-26 00:39:00,57.3,50.1,29.84,ESE,109,8.0,11.0,77,0.00,,,0.00,Wunderground v.1.13,2013-09-26 05:39:00,
2013-09-26 00:41:00,57.2,50.1,29.84,ESE,118,8.0,8.0,77,0.00,,,0.00,Wunderground v.1.13,2013-09-26 05:41:00,
2013-09-26 00:42:00,57.2,50.1,29.84,ESE,111,8.0,8.0,77,0.00,,,0.00,Wunderground v.1.13,2013-09-26 05:42:00,
2013-09-26 00:47:00,57.2,50.1,29.84,East,98,8.0,10.0,77,0.00,,,0.00,Wunderground v.1.13,2013-09-26 05:47:00,
2013-09-26 00:48:00,57.2,50.4,29.84,ESE,114,8.0,10.0,78,0.00,,,0.00,Wunderground v.1.13,2013-09-26 05:48:00,
2013-09-26 00:49:00,57.2,50.4,29.84,ESE,109,8.0,10.0,78,0.00,,,0.00,Wunderground v.1.13,2013-09-26 05:49:00,
2013-09-26 00:50:00,57.2,50.4,29.84,ESE,111,8.0,8.0,78,0.00,,,0.00,Wunderground v.1.13,2013-09-26 05:50:00,
2013-09-26 00:52:00,57.2,50.4,29.84,East,94,8.0,8.0,78,0.00,,,0.00,Wunderground v.1.13,2013-09-26 05:52:00,
2013-09-26 00:55:00,57.2,50.4,29.84,ESE,110,8.0,8.0,78,0.00,,,0.00,Wunderground v.1.13,2013-09-26 05:55:00,
2013-09-26 00:56:00,57.2,50.4,29.84,ESE,118,7.0,8.0,78,0.00,,,0.00,Wunderground v.1.13,2013-09-26 05:56:00,
2013-09-26 00:58:00,57.2,50.4,29.84,East,92,7.0,9.0,78,0.00,,,0.00,Wunderground v.1.13,2013-09-26 05:58:00,
2013-09-26 01:02:00,57.2,50.4,29.84,ESE,103,7.0,8.0,78,0.00,,,0.00,Wunderground v.1.13,2013-09-26 06:02:00,
2013-09-26 01:03:00,57.1,50.6,29.84,ESE,116,7.0,8.0,79,0.00,,,0.00,Wunderground v.1.13,2013-09-26 06:03:00,
2013-09-26 01:04:00,57.1,50.3,29.84,ESE,113,7.0,8.0,78,0.00,,,0.00,Wunderground v.1.13,2013-09-26 06:04:00,
2013-09-26 01:08:00,57.1,50.6,29.84,ESE,116,7.0,10.0,79,0.00,,,0.00,Wunderground v.1.13,2013-09-26 06:08:00,
2013-09-26 01:12:00,57.1,50.6,29.84,ESE,118,8.0,9.0,79,0.00,,,0.00,Wunderground v.1.13,2013-09-26 06:12:00,
2013-09-26 01:13:00,57.0,50.2,29.84,ESE,111,8.0,10.0,78,0.00,,,0.00,Wunderground v.1.13,2013-09-26 06:13:00,
2013-09-26 01:14:00,57.0,50.5,29.84,ESE,113,8.0,10.0,79,0.00,,,0.00,Wunderground v.1.13,2013-09-26 06:14:00,
2013-09-26 01:15:00,57.0,50.5,29.84,ESE,119,8.0,8.0,79,0.00,,,0.00,Wunderground v.1.13,2013-09-26 06:15:00,
2013-09-26 01:17:00,57.0,50.9,29.84,ESE,118,8.0,8.0,80,0.00,,,0.00,Wunderground v.1.13,2013-09-26 06:17:00,
2013-09-26 01:20:00,57.0,50.5,29.84,ESE,111,7.0,9.0,79,0.00,,,0.00,Wunderground v.1.13,2013-09-26 06:20:00,
2013-09-26 01:23:00,56.9,50.8,29.84,ESE,105,8.0,10.0,80,0.00,,,0.00,Wunderground v.1.13,2013-09-26 06:23:00,
2013-09-26 01:25:00,56.8,50.4,29.84,ESE,109,8.0,9.0,79,0.00,,,0.00,Wunderground v.1.13,2013-09-26 06:25:00,
2013-09-26 01:26:00,56.8,50.7,29.84,ESE,107,8.0,10.0,80,0.00,,,0.00,Wunderground v.1.13,2013-09-26 06:26:00,
2013-09-26 01:29:00,56.7,50.6,29.84,ESE,117,8.0,11.0,80,0.00,,,0.00,Wunderground v.1.13,2013-09-26 06:29:00,
2013-09-26 01:30:00,56.7,50.6,29.84,ESE,113,8.0,8.0,80,0.00,,,0.00,Wunderground v.1.13,2013-09-26 06:30:00,
2013-09-26 01:31:00,56.7,50.6,29.84,ESE,113,8.0,8.0,80,0.00,,,0.00,Wunderground v.1.13,2013-09-26 06:31:00,
2013-09-26 01:32:00,56.7,50.3,29.84,ESE,117,8.0,8.0,79,0.00,,,0.00,Wunderground v.1.13,2013-09-26 06:32:00,
2013-09-26 01:34:00,56.6,50.2,29.84,NE,43,8.0,9.0,79,0.00,,,0.00,Wunderground v.1.13,2013-09-26 06:34:00,
2013-09-26 01:35:00,56.6,50.5,29.85,ESE,111,8.0,10.0,80,0.00,,,0.00,Wunderground v.1.13,2013-09-26 06:35:00,
2013-09-26 01:37:00,56.5,50.1,29.85,East,99,8.0,10.0,79,0.00,,,0.00,Wunderground v.1.13,2013-09-26 06:37:00,
2013-09-26 01:41:00,56.4,50.3,29.85,East,101,8.0,8.0,80,0.00,,,0.00,Wunderground v.1.13,2013-09-26 06:41:00,
2013-09-26 01:43:00,56.4,50.3,29.85,ESE,121,8.0,9.0,80,0.00,,,0.00,Wunderground v.1.13,2013-09-26 06:43:00,
2013-09-26 01:45:00,56.4,50.6,29.85,ESE,113,8.0,10.0,81,0.00,,,0.00,Wunderground v.1.13,2013-09-26 06:45:00,
2013-09-26 01:47:00,56.3,50.2,29.85,ESE,113,8.0,10.0,80,0.00,,,0.00,Wunderground v.1.13,2013-09-26 06:47:00,
2013-09-26 01:48:00,56.3,50.2,29.85,ESE,113,8.0,10.0,80,0.00,,,0.00,Wunderground v.1.13,2013-09-26 06:48:00,
2013-09-26 01:49:00,56.3,50.2,29.85,ESE,109,8.0,10.0,80,0.00,,,0.00,Wunderground v.1.13,2013-09-26 06:49:00,
2013-09-26 01:51:00,56.2,50.4,29.85,ESE,111,8.0,8.0,81,0.00,,,0.00,Wunderground v.1.13,2013-09-26 06:51:00,
2013-09-26 01:54:00,56.3,50.5,29.85,ESE,110,8.0,9.0,81,0.00,,,0.00,Wunderground v.1.13,2013-09-26 06:54:00,
2013-09-26 01:55:00,56.3,50.5,29.85,ESE,111,8.0,9.0,81,0.00,,,0.00,Wunderground v.1.13,2013-09-26 06:55:00,
2013-09-26 01:56:00,56.2,50.4,29.85,ESE,121,8.0,9.0,81,0.00,,,0.00,Wunderground v.1.13,2013-09-26 06:56:00,
2013-09-26 01:57:00,56.2,50.4,29.85,East,90,8.0,9.0,81,0.00,,,0.00,Wunderground v.1.13,2013-09-26 06:57:00,
2013-09-26 01:59:00,56.2,50.4,29.85,ESE,112,8.0,11.0,81,0.00,,,0.00,Wunderground v.1.13,2013-09-26 06:59:00,
2013-09-26 02:01:00,56.2,50.4,29.84,ESE,114,8.0,8.0,81,0.00,,,0.00,Wunderground v.1.13,2013-09-26 07:01:00,
2013-09-26 02:02:00,56.2,50.4,29.85,East,99,8.0,8.0,81,0.00,,,0.00,Wunderground v.1.13,2013-09-26 07:02:00,
2013-09-26 02:03:00,56.2,50.4,29.85,ESE,107,8.0,8.0,81,0.00,,,0.00,Wunderground v.1.13,2013-09-26 07:03:00,
2013-09-26 02:04:00,56.2,50.4,29.85,ESE,110,8.0,8.0,81,0.00,,,0.00,Wunderground v.1.13,2013-09-26 07:04:00,
2013-09-26 02:07:00,56.1,50.3,29.85,ESE,112,8.0,10.0,81,0.00,,,0.00,Wunderground v.1.13,2013-09-26 07:07:00,
2013-09-26 02:08:00,56.1,50.3,29.85,ESE,112,8.0,10.0,81,0.00,,,0.00,Wunderground v.1.13,2013-09-26 07:08:00,
2013-09-26 02:11:00,56.1,50.3,29.84,ESE,111,8.0,9.0,81,0.00,,,0.00,Wunderground v.1.13,2013-09-26 07:11:00,
2013-09-26 02:15:00,56.1,50.3,29.84,East,94,8.0,9.0,81,0.00,,,0.00,Wunderground v.1.13,2013-09-26 07:15:00,
2013-09-26 02:18:00,56.0,50.6,29.84,ESE,120,8.0,9.0,82,0.00,,,0.00,Wunderground v.1.13,2013-09-26 07:18:00,
2013-09-26 02:19:00,56.0,50.6,29.84,ESE,109,8.0,9.0,82,0.00,,,0.00,Wunderground v.1.13,2013-09-26 07:19:00,
2013-09-26 02:20:00,56.0,50.6,29.84,SE,125,8.0,8.0,82,0.00,,,0.00,Wunderground v.1.13,2013-09-26 07:20:00,
2013-09-26 02:22:00,56.0,50.6,29.84,ESE,102,8.0,10.0,82,0.00,,,0.00,Wunderground v.1.13,2013-09-26 07:22:00,
2013-09-26 02:23:00,56.0,50.6,29.84,ESE,111,8.0,10.0,82,0.00,,,0.00,Wunderground v.1.13,2013-09-26 07:23:00,
2013-09-26 02:24:00,56.0,50.6,29.84,ESE,103,8.0,10.0,82,0.00,,,0.00,Wunderground v.1.13,2013-09-26 07:24:00,
2013-09-26 02:26:00,55.9,50.5,29.84,ESE,119,8.0,8.0,82,0.00,,,0.00,Wunderground v.1.13,2013-09-26 07:26:00,
2013-09-26 02:29:00,55.9,50.5,29.84,ESE,102,8.0,10.0,82,0.00,,,0.00,Wunderground v.1.13,2013-09-26 07:29:00,
2013-09-26 02:32:00,55.9,50.5,29.84,ESE,111,8.0,9.0,82,0.00,,,0.00,Wunderground v.1.13,2013-09-26 07:32:00,
2013-09-26 02:34:00,55.8,50.4,29.84,ESE,118,8.0,9.0,82,0.00,,,0.00,Wunderground v.1.13,2013-09-26 07:34:00,
2013-09-26 02:37:00,55.8,50.7,29.84,SE,132,8.0,10.0,83,0.00,,,0.00,Wunderground v.1.13,2013-09-26 07:37:00,
2013-09-26 02:39:00,55.8,50.7,29.84,ESE,116,8.0,10.0,83,0.00,,,0.00,Wunderground v.1.13,2013-09-26 07:39:00,
2013-09-26 02:40:00,55.8,50.7,29.84,ESE,118,8.0,9.0,83,0.00,,,0.00,Wunderground v.1.13,2013-09-26 07:40:00,
2013-09-26 02:42:00,55.8,50.4,29.83,ESE,104,8.0,9.0,82,0.00,,,0.00,Wunderground v.1.13,2013-09-26 07:42:00,
2013-09-26 02:45:00,55.8,50.7,29.83,ESE,107,8.0,10.0,83,0.00,,,0.00,Wunderground v.1.13,2013-09-26 07:45:00,
2013-09-26 02:46:00,55.9,50.8,29.83,ESE,114,9.0,11.0,83,0.00,,,0.00,Wunderground v.1.13,2013-09-26 07:46:00,
2013-09-26 02:48:00,55.9,50.8,29.83,ESE,112,9.0,12.0,83,0.00,,,0.00,Wunderground v.1.13,2013-09-26 07:48:00,
2013-09-26 02:49:00,55.9,50.8,29.83,ESE,113,9.0,12.0,83,0.00,,,0.00,Wunderground v.1.13,2013-09-26 07:49:00,
2013-09-26 02:52:00,55.9,50.8,29.83,ESE,117,9.0,11.0,83,0.00,,,0.00,Wunderground v.1.13,2013-09-26 07:52:00,
2013-09-26 02:53:00,55.9,50.8,29.83,East,100,9.0,11.0,83,0.00,,,0.00,Wunderground v.1.13,2013-09-26 07:53:00,
2013-09-26 02:54:00,55.9,51.1,29.83,ESE,103,9.0,11.0,84,0.00,,,0.00,Wunderground v.1.13,2013-09-26 07:54:00,
2013-09-26 02:58:00,55.9,50.8,29.83,ESE,107,9.0,10.0,83,0.00,,,0.00,Wunderground v.1.13,2013-09-26 07:58:00,
2013-09-26 02:59:00,55.9,50.8,29.83,ESE,113,9.0,10.0,83,0.00,,,0.00,Wunderground v.1.13,2013-09-26 07:59:00,
2013-09-26 03:00:00,55.9,50.8,29.83,ESE,115,9.0,10.0,83,0.00,,,0.00,Wunderground v.1.13,2013-09-26 08:00:00,
2013-09-26 03:03:00,55.9,50.8,29.83,ESE,104,9.0,11.0,83,0.00,,,0.00,Wunderground v.1.13,2013-09-26 08:03:00,
2013-09-26 03:04:00,55.9,50.8,29.83,ESE,108,9.0,11.0,83,0.00,,,0.00,Wunderground v.1.13,2013-09-26 08:04:00,
2013-09-26 03:05:00,55.9,50.8,29.83,ESE,104,9.0,10.0,83,0.00,,,0.00,Wunderground v.1.13,2013-09-26 08:05:00,
2013-09-26 03:06:00,55.9,50.8,29.83,ESE,111,9.0,10.0,83,0.00,,,0.00,Wunderground v.1.13,2013-09-26 08:06:00,
2013-09-26 03:09:00,56.0,51.2,29.83,ESE,119,9.0,10.0,84,0.00,,,0.00,Wunderground v.1.13,2013-09-26 08:09:00,
2013-09-26 03:10:00,56.0,51.2,29.83,East,88,9.0,9.0,84,0.00,,,0.00,Wunderground v.1.13,2013-09-26 08:10:00,
2013-09-26 03:12:00,56.0,50.9,29.83,SE,128,9.0,9.0,83,0.00,,,0.00,Wunderground v.1.13,2013-09-26 08:12:00,
2013-09-26 03:13:00,55.9,50.8,29.83,SE,128,9.0,9.0,83,0.00,,,0.00,Wunderground v.1.13,2013-09-26 08:13:00,
2013-09-26 03:15:00,55.9,50.8,29.83,ESE,116,9.0,10.0,83,0.00,,,0.00,Wunderground v.1.13,2013-09-26 08:15:00,
2013-09-26 03:18:00,56.1,51.3,29.83,ESE,107,9.0,10.0,84,0.00,,,0.00,Wunderground v.1.13,2013-09-26 08:18:00,
2013-09-26 03:19:00,56.1,51.3,29.83,ESE,119,9.0,10.0,84,0.00,,,0.00,Wunderground v.1.13,2013-09-26 08:19:00,
2013-09-26 03:20:00,56.1,51.3,29.83,ESE,103,9.0,9.0,84,0.00,,,0.00,Wunderground v.1.13,2013-09-26 08:20:00,
2013-09-26 03:24:00,56.2,51.4,29.82,ESE,115,9.0,10.0,84,0.00,,,0.00,Wunderground v.1.13,2013-09-26 08:24:00,
2013-09-26 03:25:00,56.2,51.4,29.83,ESE,115,9.0,9.0,84,0.00,,,0.00,Wunderground v.1.13,2013-09-26 08:25:00,
2013-09-26 03:26:00,56.2,51.1,29.82,SE,129,9.0,9.0,83,0.00,,,0.00,Wunderground v.1.13,2013-09-26 08:26:00,
2013-09-26 03:29:00,56.2,51.1,29.82,ESE,109,9.0,16.0,83,0.00,,,0.00,Wunderground v.1.13,2013-09-26 08:29:00,
2013-09-26 03:30:00,56.2,51.1,29.83,ESE,110,10.0,11.0,83,0.00,,,0.00,Wunderground v.1.13,2013-09-26 08:30:00,
2013-09-26 03:32:00,56.3,51.2,29.83,ESE,103,10.0,11.0,83,0.00,,,0.00,Wunderground v.1.13,2013-09-26 08:32:00,
2013-09-26 03:34:00,56.3,51.2,29.82,SE,128,9.0,11.0,83,0.00,,,0.00,Wunderground v.1.13,2013-09-26 08:34:00,
2013-09-26 03:35:00,56.3,51.2,29.82,ESE,113,9.0,10.0,83,0.00,,,0.00,Wunderground v.1.13,2013-09-26 08:35:00,
2013-09-26 03:38:00,56.3,51.2,29.82,ESE,121,9.0,11.0,83,0.00,,,0.00,Wunderground v.1.13,2013-09-26 08:38:00,
2013-09-26 03:39:00,56.3,51.5,29.82,ESE,121,9.0,14.0,84,0.00,,,0.00,Wunderground v.1.13,2013-09-26 08:39:00,
2013-09-26 03:40:00,56.3,51.2,29.82,ESE,111,9.0,9.0,83,0.00,,,0.00,Wunderground v.1.13,2013-09-26 08:40:00,
2013-09-26 03:41:00,56.4,51.3,29.82,ESE,118,9.0,11.0,83,0.00,,,0.00,Wunderground v.1.13,2013-09-26 08:41:00,
2013-09-26 03:43:00,56.5,51.7,29.82,ESE,115,9.0,11.0,84,0.00,,,0.00,Wunderground v.1.13,2013-09-26 08:43:00,
2013-09-26 03:45:00,56.4,51.3,29.82,ESE,116,9.0,9.0,83,0.00,,,0.00,Wunderground v.1.13,2013-09-26 08:45:00,
2013-09-26 03:46:00,56.5,51.4,29.82,ESE,109,9.0,9.0,83,0.00,,,0.00,Wunderground v.1.13,2013-09-26 08:46:00,
2013-09-26 03:48:00,56.4,51.3,29.82,ESE,122,9.0,13.0,83,0.00,,,0.00,Wunderground v.1.13,2013-09-26 08:48:00,
2013-09-26 03:50:00,56.4,51.3,29.82,ESE,119,9.0,9.0,83,0.00,,,0.00,Wunderground v.1.13,2013-09-26 08:50:00,
2013-09-26 03:51:00,56.4,51.3,29.82,ESE,118,9.0,9.0,83,0.00,,,0.00,Wunderground v.1.13,2013-09-26 08:51:00,
2013-09-26 03:54:00,56.5,51.7,29.82,ESE,121,9.0,10.0,84,0.00,,,0.00,Wunderground v.1.13,2013-09-26 08:54:00,
2013-09-26 03:56:00,56.4,51.3,29.82,East,83,10.0,10.0,83,0.00,,,0.00,Wunderground v.1.13,2013-09-26 08:56:00,
2013-09-26 03:58:00,56.4,51.3,29.82,ESE,111,9.0,10.0,83,0.00,,,0.00,Wunderground v.1.13,2013-09-26 08:58:00,
2013-09-26 03:59:00,56.4,51.3,29.82,ESE,117,9.0,10.0,83,0.00,,,0.00,Wunderground v.1.13,2013-09-26 08:59:00,
2013-09-26 04:02:00,56.4,51.3,29.82,ESE,111,9.0,12.0,83,0.00,,,0.00,Wunderground v.1.13,2013-09-26 09:02:00,
2013-09-26 04:03:00,56.4,51.3,29.82,ESE,116,9.0,12.0,83,0.00,,,0.00,Wunderground v.1.13,2013-09-26 09:03:00,
2013-09-26 04:06:00,56.4,51.6,29.82,SE,126,9.0,12.0,84,0.00,,,0.00,Wunderground v.1.13,2013-09-26 09:06:00,
2013-09-26 04:08:00,56.4,51.3,29.82,ESE,110,10.0,12.0,83,0.00,,,0.00,Wunderground v.1.13,2013-09-26 09:08:00,
2013-09-26 04:10:00,56.4,51.3,29.82,ESE,112,9.0,9.0,83,0.00,,,0.00,Wunderground v.1.13,2013-09-26 09:10:00,
2013-09-26 04:12:00,56.4,51.6,29.82,ESE,103,9.0,9.0,84,0.00,,,0.00,Wunderground v.1.13,2013-09-26 09:12:00,
2013-09-26 04:14:00,56.4,51.3,29.82,ESE,111,9.0,9.0,83,0.00,,,0.00,Wunderground v.1.13,2013-09-26 09:14:00,
2013-09-26 04:15:00,56.4,51.3,29.82,SE,133,9.0,9.0,83,0.00,,,0.00,Wunderground v.1.13,2013-09-26 09:15:00,
2013-09-26 04:17:00,56.4,51.3,29.82,SE,129,9.0,11.0,83,0.00,,,0.00,Wunderground v.1.13,2013-09-26 09:17:00,
2013-09-26 04:18:00,56.4,51.3,29.82,ESE,102,9.0,11.0,83,0.00,,,0.00,Wunderground v.1.13,2013-09-26 09:18:00,
2013-09-26 04:20:00,56.4,51.3,29.82,ESE,114,9.0,11.0,83,0.00,,,0.00,Wunderground v.1.13,2013-09-26 09:20:00,
2013-09-26 04:23:00,56.5,51.7,29.82,ESE,109,9.0,11.0,84,0.00,,,0.00,Wunderground v.1.13,2013-09-26 09:23:00,
2013-09-26 04:24:00,56.5,51.7,29.82,ESE,111,9.0,11.0,84,0.00,,,0.00,Wunderground v.1.13,2013-09-26 09:24:00,
2013-09-26 04:25:00,56.5,51.7,29.82,ESE,117,9.0,9.0,84,0.00,,,0.00,Wunderground v.1.13,2013-09-26 09:25:00,
2013-09-26 04:29:00,56.5,51.7,29.82,ESE,103,9.0,10.0,84,0.00,,,0.00,Wunderground v.1.13,2013-09-26 09:29:00,
2013-09-26 04:30:00,56.6,51.5,29.82,ESE,114,9.0,10.0,83,0.00,,,0.00,Wunderground v.1.13,2013-09-26 09:30:00,
2013-09-26 04:34:00,56.5,51.7,29.82,ESE,117,9.0,10.0,84,0.00,,,0.00,Wunderground v.1.13,2013-09-26 09:34:00,
2013-09-26 04:36:00,56.6,51.8,29.82,ESE,109,8.0,10.0,84,0.00,,,0.00,Wunderground v.1.13,2013-09-26 09:36:00,
2013-09-26 04:37:00,56.6,51.8,29.82,ESE,112,8.0,10.0,84,0.00,,,0.00,Wunderground v.1.13,2013-09-26 09:37:00,
2013-09-26 04:38:00,56.6,51.8,29.82,ESE,103,8.0,10.0,84,0.00,,,0.00,Wunderground v.1.13,2013-09-26 09:38:00,
2013-09-26 04:40:00,56.6,51.8,29.82,SE,128,8.0,14.0,84,0.00,,,0.00,Wunderground v.1.13,2013-09-26 09:40:00,
2013-09-26 04:43:00,56.5,51.4,29.82,ESE,110,8.0,14.0,83,0.00,,,0.00,Wunderground v.1.13,2013-09-26 09:43:00,
2013-09-26 04:47:00,56.4,51.3,29.82,ESE,114,8.0,10.0,83,0.00,,,0.00,Wunderground v.1.13,2013-09-26 09:47:00,
2013-09-26 04:48:00,56.4,51.6,29.82,SE,128,8.0,10.0,84,0.00,,,0.00,Wunderground v.1.13,2013-09-26 09:48:00,
2013-09-26 04:49:00,56.5,51.7,29.83,ESE,114,8.0,10.0,84,0.00,,,0.00,Wunderground v.1.13,2013-09-26 09:49:00,
2013-09-26 04:55:00,56.5,51.4,29.83,ESE,119,8.0,8.0,83,0.00,,,0.00,Wunderground v.1.13,2013-09-26 09:55:00,
2013-09-26 04:57:00,56.4,51.3,29.83,ESE,105,7.0,10.0,83,0.00,,,0.00,Wunderground v.1.13,2013-09-26 09:57:00,
2013-09-26 05:02:00,56.6,51.8,29.83,ESE,103,8.0,9.0,84,0.00,,,0.00,Wunderground v.1.13,2013-09-26 10:02:00,
2013-09-26 05:04:00,56.6,51.8,29.83,East,101,8.0,10.0,84,0.00,,,0.00,Wunderground v.1.13,2013-09-26 10:04:00,
2013-09-26 05:05:00,56.6,51.8,29.83,SE,126,8.0,9.0,84,0.00,,,0.00,Wunderground v.1.13,2013-09-26 10:05:00,
2013-09-26 05:08:00,56.7,51.9,29.83,East,97,8.0,10.0,84,0.00,,,0.00,Wunderground v.1.13,2013-09-26 10:08:00,
2013-09-26 05:10:00,56.7,51.9,29.83,SE,128,8.0,12.0,84,0.00,,,0.00,Wunderground v.1.13,2013-09-26 10:10:00,
2013-09-26 05:11:00,56.7,51.9,29.83,ESE,115,8.0,12.0,84,0.00,,,0.00,Wunderground v.1.13,2013-09-26 10:11:00,
2013-09-26 05:14:00,56.6,51.5,29.82,ESE,114,9.0,12.0,83,0.00,,,0.00,Wunderground v.1.13,2013-09-26 10:14:00,
2013-09-26 05:19:00,56.5,51.4,29.82,ESE,111,10.0,10.0,83,0.00,,,0.00,Wunderground v.1.13,2013-09-26 10:19:00,
2013-09-26 05:20:00,56.5,51.7,29.82,ESE,119,10.0,10.0,84,0.00,,,0.00,Wunderground v.1.13,2013-09-26 10:20:00,
2013-09-26 05:22:00,56.5,51.7,29.82,ESE,107,10.0,11.0,84,0.00,,,0.00,Wunderground v.1.13,2013-09-26 10:22:00,
2013-09-26 05:23:00,56.5,51.7,29.82,ESE,115,10.0,13.0,84,0.00,,,0.00,Wunderground v.1.13,2013-09-26 10:23:00,
2013-09-26 05:24:00,56.5,51.7,29.82,ESE,118,10.0,13.0,84,0.00,,,0.00,Wunderground v.1.13,2013-09-26 10:24:00,
2013-09-26 05:28:00,56.6,51.8,29.82,ESE,121,10.0,12.0,84,0.00,,,0.00,Wunderground v.1.13,2013-09-26 10:28:00,
2013-09-26 05:29:00,56.6,51.8,29.82,ESE,122,9.0,12.0,84,0.00,,,0.00,Wunderground v.1.13,2013-09-26 10:29:00,
2013-09-26 05:31:00,56.6,51.8,29.82,East,101,9.0,9.0,84,0.00,,,0.00,Wunderground v.1.13,2013-09-26 10:31:00,
2013-09-26 05:32:00,56.7,51.9,29.82,ESE,118,9.0,10.0,84,0.00,,,0.00,Wunderground v.1.13,2013-09-26 10:32:00,
2013-09-26 05:37:00,56.6,51.5,29.83,SE,125,9.0,12.0,83,0.00,,,0.00,Wunderground v.1.13,2013-09-26 10:37:00,
2013-09-26 05:38:00,56.5,51.4,29.83,SE,128,9.0,12.0,83,0.00,,,0.00,Wunderground v.1.13,2013-09-26 10:38:00,
2013-09-26 05:39:00,56.5,51.4,29.83,ESE,110,9.0,12.0,83,0.00,,,0.00,Wunderground v.1.13,2013-09-26 10:39:00,
2013-09-26 05:42:00,56.5,51.4,29.83,SE,132,10.0,10.0,83,0.00,,,0.00,Wunderground v.1.13,2013-09-26 10:42:00,
2013-09-26 05:44:00,56.5,51.4,29.83,ESE,120,9.0,10.0,83,0.00,,,0.00,Wunderground v.1.13,2013-09-26 10:44:00,
2013-09-26 05:45:00,56.5,51.7,29.83,SE,128,9.0,9.0,84,0.00,,,0.00,Wunderground v.1.13,2013-09-26 10:45:00,
2013-09-26 05:47:00,56.5,51.7,29.82,ESE,111,10.0,10.0,84,0.00,,,0.00,Wunderground v.1.13,2013-09-26 10:47:00,
2013-09-26 05:48:00,56.5,51.4,29.82,ESE,117,10.0,14.0,83,0.00,,,0.00,Wunderground v.1.13,2013-09-26 10:48:00,
2013-09-26 05:50:00,56.5,51.7,29.82,ESE,107,10.0,11.0,84,0.00,,,0.00,Wunderground v.1.13,2013-09-26 10:50:00,
2013-09-26 05:52:00,56.5,51.4,29.83,ESE,123,11.0,12.0,83,0.00,,,0.00,Wunderground v.1.13,2013-09-26 10:52:00,
2013-09-26 05:53:00,56.5,51.7,29.83,ESE,109,11.0,12.0,84,0.00,,,0.00,Wunderground v.1.13,2013-09-26 10:53:00,
2013-09-26 05:56:00,56.4,51.3,29.83,ESE,109,11.0,11.0,83,0.00,,,0.00,Wunderground v.1.13,2013-09-26 10:56:00,
2013-09-26 05:58:00,56.4,51.6,29.82,ESE,105,11.0,11.0,84,0.00,,,0.00,Wunderground v.1.13,2013-09-26 10:58:00,
2013-09-26 06:00:00,56.4,51.3,29.83,ESE,117,10.0,10.0,83,0.00,,,0.00,Wunderground v.1.13,2013-09-26 11:00:00,
2013-09-26 06:02:00,56.3,51.2,29.83,ESE,113,10.0,10.0,83,0.00,,,0.00,Wunderground v.1.13,2013-09-26 11:02:00,
2013-09-26 06:03:00,56.3,51.5,29.83,ESE,110,10.0,10.0,84,0.00,,,0.00,Wunderground v.1.13,2013-09-26 11:03:00,
2013-09-26 06:05:00,56.3,51.5,29.83,SE,128,10.0,10.0,84,0.00,,,0.00,Wunderground v.1.13,2013-09-26 11:05:00,
2013-09-26 06:07:00,56.4,51.6,29.83,ESE,107,10.0,10.0,84,0.00,,,0.00,Wunderground v.1.13,2013-09-26 11:07:00,
2013-09-26 06:10:00,56.3,51.5,29.83,ESE,111,9.0,11.0,84,0.00,,,0.00,Wunderground v.1.13,2013-09-26 11:10:00,
2013-09-26 06:12:00,56.2,51.4,29.83,ESE,116,9.0,11.0,84,0.00,,,0.00,Wunderground v.1.13,2013-09-26 11:12:00,
2013-09-26 06:13:00,56.2,51.4,29.83,ESE,102,9.0,11.0,84,0.00,,,0.00,Wunderground v.1.13,2013-09-26 11:13:00,
2013-09-26 06:14:00,56.2,51.4,29.83,ESE,109,9.0,11.0,84,0.00,,,0.00,Wunderground v.1.13,2013-09-26 11:14:00,
2013-09-26 06:17:00,56.2,51.4,29.83,ESE,115,10.0,13.0,84,0.00,,,0.00,Wunderground v.1.13,2013-09-26 11:17:00,
2013-09-26 06:20:00,56.1,51.3,29.83,ESE,121,10.0,11.0,84,0.00,,,0.00,Wunderground v.1.13,2013-09-26 11:20:00,
2013-09-26 06:21:00,56.1,51.3,29.83,ESE,114,10.0,11.0,84,0.00,,,0.00,Wunderground v.1.13,2013-09-26 11:21:00,
2013-09-26 06:23:00,56.1,51.3,29.84,ESE,107,9.0,11.0,84,0.00,,,0.00,Wunderground v.1.13,2013-09-26 11:23:00,
2013-09-26 06:24:00,56.1,51.7,29.84,ESE,116,9.0,11.0,85,0.00,,,0.00,Wunderground v.1.13,2013-09-26 11:24:00,
2013-09-26 06:26:00,56.0,51.2,29.84,ESE,123,9.0,9.0,84,0.00,,,0.00,Wunderground v.1.13,2013-09-26 11:26:00,
2013-09-26 06:28:00,55.9,51.1,29.84,ESE,113,8.0,9.0,84,0.00,,,0.00,Wunderground v.1.13,2013-09-26 11:28:00,
2013-09-26 06:29:00,56.0,51.2,29.84,ESE,115,8.0,11.0,84,0.00,,,0.00,Wunderground v.1.13,2013-09-26 11:29:00,
2013-09-26 06:30:00,55.9,51.1,29.84,ESE,117,8.0,9.0,84,0.00,,,0.00,Wunderground v.1.13,2013-09-26 11:30:00,
2013-09-26 06:35:00,55.9,51.1,29.84,ESE,117,8.0,8.0,84,0.00,,,0.00,Wunderground v.1.13,2013-09-26 11:35:00,
2013-09-26 06:36:00,56.0,51.6,29.84,ESE,111,8.0,8.0,85,0.00,,,0.00,Wunderground v.1.13,2013-09-26 11:36:00,
2013-09-26 06:37:00,55.9,51.1,29.84,ESE,115,7.0,11.0,84,0.00,,,0.00,Wunderground v.1.13,2013-09-26 11:37:00,
2013-09-26 06:39:00,55.9,51.5,29.84,East,101,8.0,11.0,85,0.00,,,0.00,Wunderground v.1.13,2013-09-26 11:39:00,
2013-09-26 06:42:00,55.8,51.0,29.84,ESE,102,8.0,10.0,84,0.00,,,0.00,Wunderground v.1.13,2013-09-26 11:42:00,
2013-09-26 06:44:00,55.8,51.4,29.84,ESE,107,8.0,10.0,85,0.00,,,0.00,Wunderground v.1.13,2013-09-26 11:44:00,
2013-09-26 06:46:00,55.8,51.0,29.84,ESE,117,9.0,12.0,84,0.00,,,0.00,Wunderground v.1.13,2013-09-26 11:46:00,
2013-09-26 06:49:00,55.8,51.0,29.84,ESE,105,9.0,12.0,84,0.00,,,0.00,Wunderground v.1.13,2013-09-26 11:49:00,
2013-09-26 06:51:00,55.7,50.9,29.84,East,98,9.0,9.0,84,0.00,,,0.00,Wunderground v.1.13,2013-09-26 11:51:00,
2013-09-26 06:52:00,55.7,51.3,29.84,ESE,109,10.0,10.0,85,0.00,,,0.00,Wunderground v.1.13,2013-09-26 11:52:00,
2013-09-26 06:54:00,55.6,50.8,29.84,ESE,112,10.0,10.0,84,0.00,,,0.00,Wunderground v.1.13,2013-09-26 11:54:00,
2013-09-26 06:58:00,55.7,51.3,29.84,ESE,109,10.0,11.0,85,0.00,,,0.00,Wunderground v.1.13,2013-09-26 11:58:00,
2013-09-26 06:59:00,55.7,51.3,29.84,SE,138,10.0,11.0,85,0.00,,,0.00,Wunderground v.1.13,2013-09-26 11:59:00,
2013-09-26 07:00:00,55.7,51.3,29.84,ESE,119,10.0,10.0,85,0.00,,,0.00,Wunderground v.1.13,2013-09-26 12:00:00,
2013-09-26 07:03:00,55.7,51.3,29.84,East,99,10.0,13.0,85,0.00,,,0.00,Wunderground v.1.13,2013-09-26 12:03:00,
2013-09-26 07:05:00,55.7,51.3,29.84,ESE,117,10.0,10.0,85,0.00,,,0.00,Wunderground v.1.13,2013-09-26 12:05:00,
2013-09-26 07:06:00,55.7,51.3,29.84,ESE,112,10.0,10.0,85,0.00,,,0.00,Wunderground v.1.13,2013-09-26 12:06:00,
2013-09-26 07:07:00,55.6,51.2,29.84,ESE,119,10.0,10.0,85,0.00,,,0.00,Wunderground v.1.13,2013-09-26 12:07:00,
2013-09-26 07:09:00,55.7,51.3,29.84,ESE,102,10.0,13.0,85,0.00,,,0.00,Wunderground v.1.13,2013-09-26 12:09:00,
2013-09-26 07:10:00,55.6,51.2,29.84,ESE,109,10.0,14.0,85,0.00,,,0.00,Wunderground v.1.13,2013-09-26 12:10:00,
2013-09-26 07:13:00,55.7,51.3,29.84,ESE,105,10.0,14.0,85,0.00,,,0.00,Wunderground v.1.13,2013-09-26 12:13:00,
2013-09-26 07:14:00,55.7,51.3,29.84,ESE,109,10.0,14.0,85,0.00,,,0.00,Wunderground v.1.13,2013-09-26 12:14:00,
2013-09-26 07:15:00,55.8,51.4,29.84,ESE,103,10.0,13.0,85,0.00,,,0.00,Wunderground v.1.13,2013-09-26 12:15:00,
2013-09-26 07:18:00,55.7,51.3,29.84,East,101,10.0,14.0,85,0.00,,,0.00,Wunderground v.1.13,2013-09-26 12:18:00,
2013-09-26 07:20:00,55.7,51.3,29.84,ESE,110,10.0,14.0,85,0.00,,,0.00,Wunderground v.1.13,2013-09-26 12:20:00,
2013-09-26 07:23:00,55.7,51.3,29.84,ESE,113,11.0,15.0,85,0.00,,,0.00,Wunderground v.1.13,2013-09-26 12:23:00,
2013-09-26 07:24:00,55.7,51.3,29.84,ESE,103,11.0,15.0,85,0.00,,,0.00,Wunderground v.1.13,2013-09-26 12:24:00,
2013-09-26 07:27:00,55.8,51.4,29.84,ESE,120,12.0,14.0,85,0.00,,,0.00,Wunderground v.1.13,2013-09-26 12:27:00,
2013-09-26 07:28:00,55.7,51.3,29.84,ESE,117,12.0,14.0,85,0.00,,,0.00,Wunderground v.1.13,2013-09-26 12:28:00,
2013-09-26 07:29:00,55.7,50.9,29.84,ESE,105,12.0,14.0,84,0.00,,,0.00,Wunderground v.1.13,2013-09-26 12:29:00,
2013-09-26 07:31:00,55.8,51.4,29.84,ESE,110,12.0,12.0,85,0.00,,,0.00,Wunderground v.1.13,2013-09-26 12:31:00,
2013-09-26 07:32:00,55.8,51.4,29.84,SE,133,12.0,12.0,85,0.00,,,0.00,Wunderground v.1.13,2013-09-26 12:32:00,
2013-09-26 07:33:00,55.9,51.5,29.84,SE,141,12.0,12.0,85,0.00,,,0.00,Wunderground v.1.13,2013-09-26 12:33:00,
2013-09-26 07:34:00,55.9,51.5,29.84,East,91,11.0,12.0,85,0.00,,,0.00,Wunderground v.1.13,2013-09-26 12:34:00,
2013-09-26 07:37:00,55.9,51.5,29.84,ESE,117,11.0,14.0,85,0.00,,,0.00,Wunderground v.1.13,2013-09-26 12:37:00,
2013-09-26 07:41:00,56.0,51.6,29.84,ESE,105,11.0,18.0,85,0.00,,,0.00,Wunderground v.1.13,2013-09-26 12:41:00,
2013-09-26 07:42:00,56.0,51.6,29.84,ESE,107,11.0,18.0,85,0.00,,,0.00,Wunderground v.1.13,2013-09-26 12:42:00,
2013-09-26 07:43:00,56.1,51.7,29.84,East,101,11.0,18.0,85,0.00,,,0.00,Wunderground v.1.13,2013-09-26 12:43:00,
2013-09-26 07:44:00,56.1,51.3,29.84,ESE,118,11.0,18.0,84,0.00,,,0.00,Wunderground v.1.13,2013-09-26 12:44:00,
2013-09-26 07:46:00,56.1,51.7,29.85,ESE,119,11.0,12.0,85,0.00,,,0.00,Wunderground v.1.13,2013-09-26 12:46:00,
2013-09-26 07:48:00,56.2,51.4,29.85,ESE,117,11.0,12.0,84,0.00,,,0.00,Wunderground v.1.13,2013-09-26 12:48:00,
2013-09-26 07:52:00,56.3,51.2,29.85,ESE,104,10.0,11.0,83,0.00,,,0.00,Wunderground v.1.13,2013-09-26 12:52:00,
2013-09-26 07:53:00,56.3,51.2,29.85,SE,127,10.0,11.0,83,0.00,,,0.00,Wunderground v.1.13,2013-09-26 12:53:00,
2013-09-26 07:57:00,56.5,51.4,29.85,East,101,10.0,14.0,83,0.00,,,0.00,Wunderground v.1.13,2013-09-26 12:57:00,
2013-09-26 07:58:00,56.5,51.7,29.84,ESE,112,11.0,14.0,84,0.00,,,0.00,Wunderground v.1.13,2013-09-26 12:58:00,
2013-09-26 07:59:00,56.5,51.4,29.85,ESE,109,11.0,14.0,83,0.00,,,0.00,Wunderground v.1.13,2013-09-26 12:59:00,
2013-09-26 08:02:00,56.6,51.5,29.85,ESE,119,12.0,15.0,83,0.00,,,0.00,Wunderground v.1.13,2013-09-26 13:02:00,
2013-09-26 08:03:00,56.6,51.5,29.85,East,98,12.0,15.0,83,0.00,,,0.00,Wunderground v.1.13,2013-09-26 13:03:00,
2013-09-26 08:04:00,56.6,51.5,29.85,ESE,103,12.0,15.0,83,0.00,,,0.00,Wunderground v.1.13,2013-09-26 13:04:00,
2013-09-26 08:07:00,56.8,51.7,29.85,ESE,115,12.0,14.0,83,0.00,,,0.00,Wunderground v.1.13,2013-09-26 13:07:00,
2013-09-26 08:08:00,56.8,51.7,29.85,ESE,107,12.0,14.0,83,0.00,,,0.00,Wunderground v.1.13,2013-09-26 13:08:00,
2013-09-26 08:10:00,57.0,51.9,29.85,ESE,121,12.0,12.0,83,0.00,,,0.00,Wunderground v.1.13,2013-09-26 13:10:00,
2013-09-26 08:12:00,57.0,51.9,29.85,ESE,109,11.0,12.0,83,0.00,,,0.00,Wunderground v.1.13,2013-09-26 13:12:00,
2013-09-26 08:13:00,57.1,52.0,29.85,ESE,105,11.0,12.0,83,0.00,,,0.00,Wunderground v.1.13,2013-09-26 13:13:00,
2013-09-26 08:14:00,57.1,51.7,29.85,ESE,118,11.0,19.0,82,0.00,,,0.00,Wunderground v.1.13,2013-09-26 13:14:00,
2013-09-26 08:15:00,57.2,51.8,29.85,ESE,115,11.0,12.0,82,0.00,,,0.00,Wunderground v.1.13,2013-09-26 13:15:00,
2013-09-26 08:18:00,57.3,51.5,29.85,ESE,119,12.0,18.0,81,0.00,,,0.00,Wunderground v.1.13,2013-09-26 13:18:00,
2013-09-26 08:19:00,57.3,51.9,29.85,ESE,109,12.0,18.0,82,0.00,,,0.00,Wunderground v.1.13,2013-09-26 13:19:00,
2013-09-26 08:22:00,57.5,52.0,29.85,SE,128,12.0,14.0,82,0.00,,,0.00,Wunderground v.1.13,2013-09-26 13:22:00,
2013-09-26 08:23:00,57.6,52.1,29.85,ESE,121,12.0,14.0,82,0.00,,,0.00,Wunderground v.1.13,2013-09-26 13:23:00,
2013-09-26 08:24:00,57.6,52.1,29.84,ESE,102,12.0,14.0,82,0.00,,,0.00,Wunderground v.1.13,2013-09-26 13:24:00,
2013-09-26 08:26:00,57.8,52.0,29.85,ESE,113,12.0,13.0,81,0.00,,,0.00,Wunderground v.1.13,2013-09-26 13:26:00,
2013-09-26 08:28:00,57.9,52.1,29.84,ESE,103,12.0,13.0,81,0.00,,,0.00,Wunderground v.1.13,2013-09-26 13:28:00,
2013-09-26 08:29:00,57.9,52.1,29.84,ESE,111,12.0,14.0,81,0.00,,,0.00,Wunderground v.1.13,2013-09-26 13:29:00,
2013-09-26 08:32:00,58.0,51.9,29.84,ESE,119,12.0,14.0,80,0.00,,,0.00,Wunderground v.1.13,2013-09-26 13:32:00,
2013-09-26 08:34:00,58.1,52.3,29.85,ESE,121,12.0,21.0,81,0.00,,,0.00,Wunderground v.1.13,2013-09-26 13:34:00,
2013-09-26 08:35:00,58.0,51.5,29.85,SE,125,12.0,12.0,79,0.00,,,0.00,Wunderground v.1.13,2013-09-26 13:35:00,
2013-09-26 08:36:00,58.1,52.0,29.85,SE,130,12.0,12.0,80,0.00,,,0.00,Wunderground v.1.13,2013-09-26 13:36:00,
2013-09-26 08:41:00,58.5,52.7,29.84,ESE,122,13.0,16.0,81,0.00,,,0.00,Wunderground v.1.13,2013-09-26 13:41:00,
2013-09-26 08:43:00,58.6,52.1,29.85,ESE,119,13.0,16.0,79,0.00,,,0.00,Wunderground v.1.13,2013-09-26 13:43:00,
2013-09-26 08:46:00,58.6,51.8,29.85,East,86,13.0,13.0,78,0.00,,,0.00,Wunderground v.1.13,2013-09-26 13:46:00,
2013-09-26 08:47:00,58.6,52.1,29.85,ESE,120,13.0,13.0,79,0.00,,,0.00,Wunderground v.1.13,2013-09-26 13:47:00,
2013-09-26 08:49:00,58.8,52.3,29.85,SE,130,13.0,13.0,79,0.00,,,0.00,Wunderground v.1.13,2013-09-26 13:49:00,
2013-09-26 08:50:00,59.0,52.5,29.85,ESE,119,13.0,15.0,79,0.00,,,0.00,Wunderground v.1.13,2013-09-26 13:50:00,
2013-09-26 08:51:00,59.0,52.1,29.85,ESE,123,13.0,19.0,78,0.00,,,0.00,Wunderground v.1.13,2013-09-26 13:51:00,
2013-09-26 08:56:00,59.2,52.3,29.85,ESE,110,13.0,14.0,78,0.00,,,0.00,Wunderground v.1.13,2013-09-26 13:56:00,
2013-09-26 08:57:00,59.4,52.9,29.85,ESE,115,12.0,14.0,79,0.00,,,0.00,Wunderground v.1.13,2013-09-26 13:57:00,
2013-09-26 08:58:00,59.4,52.5,29.85,ESE,112,12.0,14.0,78,0.00,,,0.00,Wunderground v.1.13,2013-09-26 13:58:00,
2013-09-26 08:59:00,59.4,52.5,29.85,SE,124,12.0,14.0,78,0.00,,,0.00,Wunderground v.1.13,2013-09-26 13:59:00,
2013-09-26 09:04:00,59.5,52.3,29.85,East,99,11.0,18.0,77,0.00,,,0.00,Wunderground v.1.13,2013-09-26 14:04:00,
2013-09-26 09:05:00,59.7,52.1,29.85,ESE,123,12.0,12.0,76,0.00,,,0.00,Wunderground v.1.13,2013-09-26 14:05:00,
2013-09-26 09:08:00,59.8,52.6,29.85,SE,129,12.0,16.0,77,0.00,,,0.00,Wunderground v.1.13,2013-09-26 14:08:00,
2013-09-26 09:09:00,59.8,52.2,29.85,ESE,119,12.0,16.0,76,0.00,,,0.00,Wunderground v.1.13,2013-09-26 14:09:00,
2013-09-26 09:10:00,59.8,52.2,29.85,ESE,123,12.0,16.0,76,0.00,,,0.00,Wunderground v.1.13,2013-09-26 14:10:00,
2013-09-26 09:13:00,60.0,52.4,29.85,SE,135,12.0,16.0,76,0.00,,,0.00,Wunderground v.1.13,2013-09-26 14:13:00,
2013-09-26 09:14:00,60.1,52.5,29.85,SE,136,12.0,16.0,76,0.00,,,0.00,Wunderground v.1.13,2013-09-26 14:14:00,
2013-09-26 09:15:00,60.2,53.0,29.85,ESE,113,12.0,12.0,77,0.00,,,0.00,Wunderground v.1.13,2013-09-26 14:15:00,
2013-09-26 09:18:00,60.4,52.4,29.85,SE,126,13.0,16.0,75,0.00,,,0.00,Wunderground v.1.13,2013-09-26 14:18:00,
2013-09-26 09:19:00,60.3,52.0,29.85,SE,128,13.0,16.0,74,0.00,,,0.00,Wunderground v.1.13,2013-09-26 14:19:00,
2013-09-26 09:20:00,60.4,52.4,29.85,ESE,105,13.0,13.0,75,0.00,,,0.00,Wunderground v.1.13,2013-09-26 14:20:00,
2013-09-26 09:24:00,60.7,52.4,29.85,SE,126,13.0,15.0,74,0.00,,,0.00,Wunderground v.1.13,2013-09-26 14:24:00,
2013-09-26 09:25:00,60.7,52.4,29.85,ESE,117,13.0,15.0,74,0.00,,,0.00,Wunderground v.1.13,2013-09-26 14:25:00,
2013-09-26 09:26:00,60.7,52.0,29.85,ESE,114,13.0,15.0,73,0.00,,,0.00,Wunderground v.1.13,2013-09-26 14:26:00,
2013-09-26 09:27:00,60.8,52.8,29.85,ESE,115,13.0,15.0,75,0.00,,,0.00,Wunderground v.1.13,2013-09-26 14:27:00,
2013-09-26 09:30:00,61.1,52.4,29.85,ESE,121,13.0,13.0,73,0.00,,,0.00,Wunderground v.1.13,2013-09-26 14:30:00,
2013-09-26 09:32:00,61.1,52.7,29.85,SE,124,12.0,13.0,74,0.00,,,0.00,Wunderground v.1.13,2013-09-26 14:32:00,
2013-09-26 09:34:00,61.3,52.6,29.85,SE,125,12.0,14.0,73,0.00,,,0.00,Wunderground v.1.13,2013-09-26 14:34:00,
2013-09-26 09:37:00,61.6,53.2,29.85,SE,127,11.0,13.0,74,0.00,,,0.00,Wunderground v.1.13,2013-09-26 14:37:00,
2013-09-26 09:38:00,61.7,53.0,29.85,ESE,123,11.0,16.0,73,0.00,,,0.00,Wunderground v.1.13,2013-09-26 14:38:00,
2013-09-26 09:40:00,61.7,52.6,29.85,ESE,117,11.0,16.0,72,0.00,,,0.00,Wunderground v.1.13,2013-09-26 14:40:00,
2013-09-26 09:41:00,61.8,52.7,29.85,SE,137,11.0,16.0,72,0.00,,,0.00,Wunderground v.1.13,2013-09-26 14:41:00,
2013-09-26 09:44:00,62.0,53.2,29.85,ESE,117,11.0,16.0,73,0.00,,,0.00,Wunderground v.1.13,2013-09-26 14:44:00,
2013-09-26 09:45:00,62.1,53.0,29.85,ESE,115,11.0,11.0,72,0.00,,,0.00,Wunderground v.1.13,2013-09-26 14:45:00,
2013-09-26 09:47:00,62.1,53.0,29.85,ESE,115,11.0,18.0,72,0.00,,,0.00,Wunderground v.1.13,2013-09-26 14:47:00,
2013-09-26 09:48:00,62.1,52.6,29.85,ESE,119,11.0,18.0,71,0.00,,,0.00,Wunderground v.1.13,2013-09-26 14:48:00,
2013-09-26 09:51:00,62.5,53.3,29.85,ESE,119,10.0,12.0,72,0.00,,,0.00,Wunderground v.1.13,2013-09-26 14:51:00,
2013-09-26 09:53:00,62.6,53.1,29.85,ESE,112,10.0,12.0,71,0.00,,,0.00,Wunderground v.1.13,2013-09-26 14:53:00,
2013-09-26 09:54:00,62.7,53.5,29.85,ESE,108,10.0,14.0,72,0.00,,,0.00,Wunderground v.1.13,2013-09-26 14:54:00,
2013-09-26 09:55:00,62.8,53.3,29.85,ESE,121,10.0,10.0,71,0.00,,,0.00,Wunderground v.1.13,2013-09-26 14:55:00,
2013-09-26 10:00:00,63.1,53.2,29.85,ESE,105,12.0,14.0,70,0.00,,,0.00,Wunderground v.1.13,2013-09-26 15:00:00,
2013-09-26 10:01:00,63.2,53.3,29.85,ESE,115,12.0,18.0,70,0.00,,,0.00,Wunderground v.1.13,2013-09-26 15:01:00,
2013-09-26 10:06:00,63.4,53.4,29.85,SSE,153,13.0,13.0,70,0.00,,,0.00,Wunderground v.1.13,2013-09-26 15:06:00,
2013-09-26 10:07:00,63.5,53.9,29.85,SE,126,13.0,13.0,71,0.00,,,0.00,Wunderground v.1.13,2013-09-26 15:07:00,
2013-09-26 10:08:00,63.5,53.5,29.85,ESE,107,13.0,13.0,70,0.00,,,0.00,Wunderground v.1.13,2013-09-26 15:08:00,
2013-09-26 10:09:00,63.6,53.2,29.85,SE,138,13.0,15.0,69,0.00,,,0.00,Wunderground v.1.13,2013-09-26 15:09:00,
2013-09-26 10:13:00,63.7,52.9,29.85,SE,125,13.0,16.0,68,0.00,,,0.00,Wunderground v.1.13,2013-09-26 15:13:00,
2013-09-26 10:14:00,63.8,53.0,29.85,SE,129,12.0,16.0,68,0.00,,,0.00,Wunderground v.1.13,2013-09-26 15:14:00,
2013-09-26 10:16:00,64.0,53.2,29.85,ESE,109,12.0,13.0,68,0.00,,,0.00,Wunderground v.1.13,2013-09-26 15:16:00,
2013-09-26 10:18:00,64.2,54.2,29.85,SE,137,12.0,13.0,70,0.00,,,0.00,Wunderground v.1.13,2013-09-26 15:18:00,
2013-09-26 10:19:00,64.3,54.3,29.85,ESE,121,11.0,13.0,70,0.00,,,0.00,Wunderground v.1.13,2013-09-26 15:19:00,
2013-09-26 10:20:00,64.3,53.5,29.85,ESE,118,11.0,11.0,68,0.00,,,0.00,Wunderground v.1.13,2013-09-26 15:20:00,
2013-09-26 10:24:00,64.7,53.9,29.85,East,94,11.0,14.0,68,0.00,,,0.00,Wunderground v.1.13,2013-09-26 15:24:00,
2013-09-26 10:25:00,64.6,53.4,29.85,ESE,110,11.0,18.0,67,0.00,,,0.00,Wunderground v.1.13,2013-09-26 15:25:00,
2013-09-26 10:26:00,64.7,53.5,29.85,SE,130,12.0,18.0,67,0.00,,,0.00,Wunderground v.1.13,2013-09-26 15:26:00,
2013-09-26 10:28:00,64.8,54.0,29.85,ESE,113,12.0,18.0,68,0.00,,,0.00,Wunderground v.1.13,2013-09-26 15:28:00,
2013-09-26 10:32:00,64.8,53.2,29.85,ESE,122,12.0,13.0,66,0.00,,,0.00,Wunderground v.1.13,2013-09-26 15:32:00,
2013-09-26 10:34:00,64.9,53.3,29.85,ESE,117,12.0,13.0,66,0.00,,,0.00,Wunderground v.1.13,2013-09-26 15:34:00,
2013-09-26 10:37:00,65.0,53.8,29.85,SE,130,11.0,18.0,67,0.00,,,0.00,Wunderground v.1.13,2013-09-26 15:37:00,
2013-09-26 10:39:00,65.2,54.0,29.85,ESE,120,11.0,18.0,67,0.00,,,0.00,Wunderground v.1.13,2013-09-26 15:39:00,
2013-09-26 10:42:00,65.4,53.3,29.85,East,101,11.0,16.0,65,0.00,,,0.00,Wunderground v.1.13,2013-09-26 15:42:00,
2013-09-26 10:45:00,65.7,54.0,29.85,ESE,105,12.0,14.0,66,0.00,,,0.00,Wunderground v.1.13,2013-09-26 15:45:00,
2013-09-26 10:46:00,65.7,54.0,29.85,ESE,122,12.0,14.0,66,0.00,,,0.00,Wunderground v.1.13,2013-09-26 15:46:00,
2013-09-26 10:47:00,65.8,54.5,29.85,ESE,119,12.0,14.0,67,0.00,,,0.00,Wunderground v.1.13,2013-09-26 15:47:00,
2013-09-26 10:50:00,66.0,54.3,29.85,ESE,121,12.0,12.0,66,0.00,,,0.00,Wunderground v.1.13,2013-09-26 15:50:00,
2013-09-26 10:52:00,66.1,54.0,29.85,ESE,112,12.0,13.0,65,0.00,,,0.00,Wunderground v.1.13,2013-09-26 15:52:00,
2013-09-26 10:53:00,66.2,54.5,29.85,ESE,119,12.0,18.0,66,0.00,,,0.00,Wunderground v.1.13,2013-09-26 15:53:00,
2013-09-26 10:57:00,66.3,54.2,29.84,ESE,119,12.0,14.0,65,0.00,,,0.00,Wunderground v.1.13,2013-09-26 15:57:00,
2013-09-26 10:58:00,66.3,55.0,29.84,ESE,122,12.0,14.0,67,0.00,,,0.00,Wunderground v.1.13,2013-09-26 15:58:00,
2013-09-26 11:00:00,66.4,53.8,29.84,ESE,119,12.0,13.0,64,0.00,,,0.00,Wunderground v.1.13,2013-09-26 16:00:00,
2013-09-26 11:02:00,66.4,54.3,29.84,SE,128,12.0,13.0,65,0.00,,,0.00,Wunderground v.1.13,2013-09-26 16:02:00,
2013-09-26 11:04:00,66.5,53.9,29.85,ESE,120,12.0,14.0,64,0.00,,,0.00,Wunderground v.1.13,2013-09-26 16:04:00,
2013-09-26 11:05:00,66.6,54.0,29.84,SE,127,12.0,12.0,64,0.00,,,0.00,Wunderground v.1.13,2013-09-26 16:05:00,
2013-09-26 11:08:00,66.9,54.7,29.84,ESE,113,12.0,19.0,65,0.00,,,0.00,Wunderground v.1.13,2013-09-26 16:08:00,
2013-09-26 11:09:00,67.0,54.4,29.84,ESE,110,12.0,19.0,64,0.00,,,0.00,Wunderground v.1.13,2013-09-26 16:09:00,
2013-09-26 11:11:00,67.1,54.5,29.84,SE,128,12.0,12.0,64,0.00,,,0.00,Wunderground v.1.13,2013-09-26 16:11:00,
2013-09-26 11:14:00,67.4,55.2,29.84,SE,128,11.0,15.0,65,0.00,,,0.00,Wunderground v.1.13,2013-09-26 16:14:00,
2013-09-26 11:15:00,67.4,54.8,29.84,ESE,118,12.0,14.0,64,0.00,,,0.00,Wunderground v.1.13,2013-09-26 16:15:00,
2013-09-26 11:19:00,67.6,54.6,29.84,ESE,105,12.0,15.0,63,0.00,,,0.00,Wunderground v.1.13,2013-09-26 16:19:00,
2013-09-26 11:20:00,67.6,54.6,29.83,ESE,117,11.0,18.0,63,0.00,,,0.00,Wunderground v.1.13,2013-09-26 16:20:00,
2013-09-26 11:24:00,67.6,54.6,29.83,ESE,118,13.0,18.0,63,0.00,,,0.00,Wunderground v.1.13,2013-09-26 16:24:00,
2013-09-26 11:25:00,67.7,55.1,29.84,SE,128,14.0,14.0,64,0.00,,,0.00,Wunderground v.1.13,2013-09-26 16:25:00,
2013-09-26 11:26:00,67.8,54.7,29.83,ESE,107,13.0,14.0,63,0.00,,,0.00,Wunderground v.1.13,2013-09-26 16:26:00,
2013-09-26 11:29:00,68.0,55.4,29.83,ESE,107,13.0,16.0,64,0.00,,,0.00,Wunderground v.1.13,2013-09-26 16:29:00,
2013-09-26 11:30:00,68.0,55.4,29.83,ESE,117,13.0,13.0,64,0.00,,,0.00,Wunderground v.1.13,2013-09-26 16:30:00,
2013-09-26 11:31:00,68.0,54.9,29.83,SE,125,12.0,13.0,63,0.00,,,0.00,Wunderground v.1.13,2013-09-26 16:31:00,
2013-09-26 11:35:00,68.2,55.1,29.83,ESE,121,12.0,16.0,63,0.00,,,0.00,Wunderground v.1.13,2013-09-26 16:35:00,
2013-09-26 11:36:00,68.1,54.6,29.83,SE,146,12.0,16.0,62,0.00,,,0.00,Wunderground v.1.13,2013-09-26 16:36:00,
2013-09-26 11:37:00,68.2,55.1,29.83,ESE,106,12.0,18.0,63,0.00,,,0.00,Wunderground v.1.13,2013-09-26 16:37:00,
2013-09-26 11:40:00,68.1,54.6,29.83,ESE,122,14.0,19.0,62,0.00,,,0.00,Wunderground v.1.13,2013-09-26 16:40:00,
2013-09-26 11:41:00,68.2,55.1,29.83,ESE,119,14.0,19.0,63,0.00,,,0.00,Wunderground v.1.13,2013-09-26 16:41:00,
2013-09-26 11:46:00,68.5,55.0,29.83,SE,138,13.0,20.0,62,0.00,,,0.00,Wunderground v.1.13,2013-09-26 16:46:00,
2013-09-26 11:48:00,68.5,55.4,29.83,SE,129,13.0,20.0,63,0.00,,,0.00,Wunderground v.1.13,2013-09-26 16:48:00,
2013-09-26 11:49:00,68.6,55.5,29.83,SE,130,13.0,20.0,63,0.00,,,0.00,Wunderground v.1.13,2013-09-26 16:49:00,
2013-09-26 11:52:00,69.0,55.4,29.83,ESE,118,13.0,21.0,62,0.00,,,0.00,Wunderground v.1.13,2013-09-26 16:52:00,
2013-09-26 11:53:00,69.0,55.4,29.83,ESE,118,13.0,21.0,62,0.00,,,0.00,Wunderground v.1.13,2013-09-26 16:53:00,
2013-09-26 11:54:00,69.1,55.5,29.83,SE,128,14.0,21.0,62,0.00,,,0.00,Wunderground v.1.13,2013-09-26 16:54:00,
2013-09-26 11:55:00,69.1,55.5,29.82,ESE,107,14.0,18.0,62,0.00,,,0.00,Wunderground v.1.13,2013-09-26 16:55:00,
2013-09-26 12:00:00,69.2,56.1,29.83,SE,132,15.0,15.0,63,0.00,,,0.00,Wunderground v.1.13,2013-09-26 17:00:00,
2013-09-26 12:06:00,69.5,55.5,29.82,ESE,116,14.0,22.0,61,0.00,,,0.00,Wunderground v.1.13,2013-09-26 17:06:00,
2013-09-26 12:07:00,69.5,55.5,29.82,SE,128,14.0,22.0,61,0.00,,,0.00,Wunderground v.1.13,2013-09-26 17:07:00,
2013-09-26 12:09:00,69.6,56.0,29.82,ESE,109,13.0,22.0,62,0.00,,,0.00,Wunderground v.1.13,2013-09-26 17:09:00,
2013-09-26 12:11:00,69.8,56.2,29.82,ESE,123,13.0,15.0,62,0.00,,,0.00,Wunderground v.1.13,2013-09-26 17:11:00,
2013-09-26 12:13:00,69.9,56.7,29.82,ESE,118,13.0,16.0,63,0.00,,,0.00,Wunderground v.1.13,2013-09-26 17:13:00,
2013-09-26 12:14:00,70.0,56.4,29.82,ESE,121,12.0,16.0,62,0.00,,,0.00,Wunderground v.1.13,2013-09-26 17:14:00,
2013-09-26 12:16:00,69.9,55.8,29.82,ESE,114,13.0,19.0,61,0.00,,,0.00,Wunderground v.1.13,2013-09-26 17:16:00,
2013-09-26 12:19:00,70.0,56.4,29.82,ESE,119,14.0,19.0,62,0.00,,,0.00,Wunderground v.1.13,2013-09-26 17:19:00,
2013-09-26 12:22:00,70.2,55.7,29.82,SE,130,14.0,14.0,60,0.00,,,0.00,Wunderground v.1.13,2013-09-26 17:22:00,
2013-09-26 12:23:00,70.2,57.0,29.82,ESE,121,14.0,14.0,63,0.00,,,0.00,Wunderground v.1.13,2013-09-26 17:23:00,
2013-09-26 12:27:00,70.5,56.9,29.81,ESE,118,13.0,18.0,62,0.00,,,0.00,Wunderground v.1.13,2013-09-26 17:27:00,
2013-09-26 12:28:00,70.5,56.4,29.81,ESE,121,13.0,21.0,61,0.00,,,0.00,Wunderground v.1.13,2013-09-26 17:28:00,
2013-09-26 12:32:00,70.6,56.0,29.81,SE,133,15.0,24.0,60,0.00,,,0.00,Wunderground v.1.13,2013-09-26 17:32:00,
2013-09-26 12:33:00,70.7,56.6,29.81,ESE,123,14.0,24.0,61,0.00,,,0.00,Wunderground v.1.13,2013-09-26 17:33:00,
2013-09-26 12:34:00,70.7,56.6,29.81,SE,125,15.0,24.0,61,0.00,,,0.00,Wunderground v.1.13,2013-09-26 17:34:00,
2013-09-26 12:36:00,70.9,56.3,29.81,ESE,121,15.0,20.0,60,0.00,,,0.00,Wunderground v.1.13,2013-09-26 17:36:00,
2013-09-26 12:38:00,71.0,56.4,29.81,ESE,119,15.0,20.0,60,0.00,,,0.00,Wunderground v.1.13,2013-09-26 17:38:00,
2013-09-26 12:39:00,71.0,56.4,29.81,ESE,113,15.0,20.0,60,0.00,,,0.00,Wunderground v.1.13,2013-09-26 17:39:00,
2013-09-26 12:41:00,71.2,56.1,29.81,SE,130,14.0,16.0,59,0.00,,,0.00,Wunderground v.1.13,2013-09-26 17:41:00,
2013-09-26 12:43:00,71.4,56.3,29.80,ESE,111,14.0,19.0,59,0.00,,,0.00,Wunderground v.1.13,2013-09-26 17:43:00,
2013-09-26 12:46:00,71.5,56.9,29.80,East,100,14.0,16.0,60,0.00,,,0.00,Wunderground v.1.13,2013-09-26 17:46:00,
2013-09-26 12:50:00,71.5,56.9,29.81,SW,236,14.0,14.0,60,0.00,,,0.00,Wunderground v.1.13,2013-09-26 17:50:00,
2013-09-26 12:51:00,71.6,57.0,29.81,ESE,111,14.0,14.0,60,0.00,,,0.00,Wunderground v.1.13,2013-09-26 17:51:00,
2013-09-26 12:53:00,71.7,56.6,29.81,ESE,107,14.0,16.0,59,0.00,,,0.00,Wunderground v.1.13,2013-09-26 17:53:00,
2013-09-26 12:55:00,71.8,56.7,29.80,ESE,123,14.0,20.0,59,0.00,,,0.00,Wunderground v.1.13,2013-09-26 17:55:00,
2013-09-26 12:56:00,71.9,57.3,29.80,ESE,107,14.0,20.0,60,0.00,,,0.00,Wunderground v.1.13,2013-09-26 17:56:00,
2013-09-26 12:59:00,72.0,56.9,29.80,SE,124,13.0,20.0,59,0.00,,,0.00,Wunderground v.1.13,2013-09-26 17:59:00,
2013-09-26 13:00:00,72.0,56.9,29.80,SE,129,13.0,19.0,59,0.00,,,0.00,Wunderground v.1.13,2013-09-26 18:00:00,
2013-09-26 13:05:00,72.2,57.5,29.80,ESE,118,15.0,16.0,60,0.00,,,0.00,Wunderground v.1.13,2013-09-26 18:05:00,
2013-09-26 13:06:00,72.2,56.6,29.80,ESE,123,15.0,16.0,58,0.00,,,0.00,Wunderground v.1.13,2013-09-26 18:06:00,
2013-09-26 13:09:00,72.3,57.6,29.80,ESE,114,15.0,18.0,60,0.00,,,0.00,Wunderground v.1.13,2013-09-26 18:09:00,
2013-09-26 13:11:00,72.3,57.2,29.80,SE,129,16.0,22.0,59,0.00,,,0.00,Wunderground v.1.13,2013-09-26 18:11:00,
2013-09-26 13:12:00,72.3,57.2,29.80,SSE,167,16.0,22.0,59,0.00,,,0.00,Wunderground v.1.13,2013-09-26 18:12:00,
2013-09-26 13:13:00,72.3,56.7,29.80,SE,125,16.0,22.0,58,0.00,,,0.00,Wunderground v.1.13,2013-09-26 18:13:00,
2013-09-26 13:16:00,72.4,56.8,29.80,ESE,121,16.0,16.0,58,0.00,,,0.00,Wunderground v.1.13,2013-09-26 18:16:00,
2013-09-26 13:17:00,72.4,57.3,29.80,ESE,123,16.0,16.0,59,0.00,,,0.00,Wunderground v.1.13,2013-09-26 18:17:00,
2013-09-26 13:20:00,72.6,56.5,29.80,ESE,107,14.0,14.0,57,0.00,,,0.00,Wunderground v.1.13,2013-09-26 18:20:00,
2013-09-26 13:22:00,72.8,57.6,29.80,ESE,115,12.0,14.0,59,0.00,,,0.00,Wunderground v.1.13,2013-09-26 18:22:00,
2013-09-26 13:23:00,72.9,57.7,29.80,ESE,119,11.0,14.0,59,0.00,,,0.00,Wunderground v.1.13,2013-09-26 18:23:00,
2013-09-26 13:24:00,73.0,57.3,29.80,ESE,122,11.0,16.0,58,0.00,,,0.00,Wunderground v.1.13,2013-09-26 18:24:00,
2013-09-26 13:26:00,73.0,57.8,29.80,SE,130,12.0,13.0,59,0.00,,,0.00,Wunderground v.1.13,2013-09-26 18:26:00,
2013-09-26 13:27:00,72.9,57.3,29.80,ESE,119,12.0,13.0,58,0.00,,,0.00,Wunderground v.1.13,2013-09-26 18:27:00,
2013-09-26 13:28:00,72.9,56.8,29.80,SE,127,12.0,13.0,57,0.00,,,0.00,Wunderground v.1.13,2013-09-26 18:28:00,
2013-09-26 13:31:00,73.0,56.9,29.80,ESE,118,14.0,22.0,57,0.00,,,0.00,Wunderground v.1.13,2013-09-26 18:31:00,
2013-09-26 13:32:00,73.0,57.3,29.80,East,95,15.0,22.0,58,0.00,,,0.00,Wunderground v.1.13,2013-09-26 18:32:00,
2013-09-26 13:33:00,73.0,57.3,29.80,ESE,114,15.0,22.0,58,0.00,,,0.00,Wunderground v.1.13,2013-09-26 18:33:00,
2013-09-26 13:34:00,73.0,57.3,29.80,ESE,110,15.0,22.0,58,0.00,,,0.00,Wunderground v.1.13,2013-09-26 18:34:00,
2013-09-26 13:38:00,73.2,57.1,29.80,ESE,104,14.0,14.0,57,0.00,,,0.00,Wunderground v.1.13,2013-09-26 18:38:00,
2013-09-26 13:39:00,73.3,57.6,29.79,SE,132,13.0,14.0,58,0.00,,,0.00,Wunderground v.1.13,2013-09-26 18:39:00,
2013-09-26 13:40:00,73.3,57.6,29.80,ESE,111,12.0,12.0,58,0.00,,,0.00,Wunderground v.1.13,2013-09-26 18:40:00,
2013-09-26 13:41:00,73.4,57.2,29.80,ESE,115,12.0,18.0,57,0.00,,,0.00,Wunderground v.1.13,2013-09-26 18:41:00,
2013-09-26 13:43:00,73.4,57.2,29.80,SE,146,12.0,21.0,57,0.00,,,0.00,Wunderground v.1.13,2013-09-26 18:43:00,
2013-09-26 13:47:00,73.3,57.1,29.79,SE,134,13.0,23.0,57,0.00,,,0.00,Wunderground v.1.13,2013-09-26 18:47:00,
2013-09-26 13:48:00,73.3,57.1,29.79,SE,124,14.0,23.0,57,0.00,,,0.00,Wunderground v.1.13,2013-09-26 18:48:00,
2013-09-26 13:50:00,73.4,57.7,29.79,ESE,105,14.0,18.0,58,0.00,,,0.00,Wunderground v.1.13,2013-09-26 18:50:00,
2013-09-26 13:52:00,73.3,57.1,29.79,ESE,118,16.0,23.0,57,0.00,,,0.00,Wunderground v.1.13,2013-09-26 18:52:00,
2013-09-26 13:55:00,73.2,57.1,29.79,SE,134,16.0,16.0,57,0.00,,,0.00,Wunderground v.1.13,2013-09-26 18:55:00,
2013-09-26 13:56:00,73.2,57.1,29.79,SSW,210,16.0,16.0,57,0.00,,,0.00,Wunderground v.1.13,2013-09-26 18:56:00,
2013-09-26 13:57:00,73.3,57.1,29.79,SE,133,16.0,16.0,57,0.00,,,0.00,Wunderground v.1.13,2013-09-26 18:57:00,
2013-09-26 14:02:00,73.7,57.5,29.78,ESE,114,14.0,18.0,57,0.00,,,0.00,Wunderground v.1.13,2013-09-26 19:02:00,
2013-09-26 14:03:00,73.7,57.5,29.78,SE,124,14.0,18.0,57,0.00,,,0.00,Wunderground v.1.13,2013-09-26 19:03:00,
2013-09-26 14:04:00,73.8,57.6,29.78,ESE,119,13.0,18.0,57,0.00,,,0.00,Wunderground v.1.13,2013-09-26 19:04:00,
2013-09-26 14:07:00,74.0,57.8,29.78,ESE,117,12.0,14.0,57,0.00,,,0.00,Wunderground v.1.13,2013-09-26 19:07:00,
2013-09-26 14:08:00,74.0,57.8,29.78,SE,134,13.0,18.0,57,0.00,,,0.00,Wunderground v.1.13,2013-09-26 19:08:00,
2013-09-26 14:13:00,74.2,58.0,29.78,ESE,114,12.0,13.0,57,0.00,,,0.00,Wunderground v.1.13,2013-09-26 19:13:00,
2013-09-26 14:14:00,74.2,58.0,29.78,East,90,12.0,13.0,57,0.00,,,0.00,Wunderground v.1.13,2013-09-26 19:14:00,
2013-09-26 14:15:00,74.4,58.7,29.78,ESE,110,11.0,11.0,58,0.00,,,0.00,Wunderground v.1.13,2013-09-26 19:15:00,
2013-09-26 14:16:00,74.4,58.7,29.78,ESE,108,11.0,11.0,58,0.00,,,0.00,Wunderground v.1.13,2013-09-26 19:16:00,
2013-09-26 14:21:00,74.5,58.3,29.78,SE,128,10.0,12.0,57,0.00,,,0.00,Wunderground v.1.13,2013-09-26 19:21:00,
2013-09-26 14:23:00,74.6,58.4,29.78,ESE,115,10.0,14.0,57,0.00,,,0.00,Wunderground v.1.13,2013-09-26 19:23:00,
2013-09-26 14:24:00,74.6,58.4,29.77,ESE,117,11.0,14.0,57,0.00,,,0.00,Wunderground v.1.13,2013-09-26 19:24:00,
2013-09-26 14:25:00,74.6,57.9,29.78,ESE,117,11.0,16.0,56,0.00,,,0.00,Wunderground v.1.13,2013-09-26 19:25:00,
2013-09-26 14:28:00,74.7,57.5,29.78,SE,145,12.0,18.0,55,0.00,,,0.00,Wunderground v.1.13,2013-09-26 19:28:00,
2013-09-26 14:30:00,74.7,58.0,29.77,SE,128,12.0,13.0,56,0.00,,,0.00,Wunderground v.1.13,2013-09-26 19:30:00,
2013-09-26 14:31:00,74.6,57.9,29.77,ESE,115,12.0,13.0,56,0.00,,,0.00,Wunderground v.1.13,2013-09-26 19:31:00,
2013-09-26 14:33:00,74.6,57.4,29.77,ESE,121,13.0,18.0,55,0.00,,,0.00,Wunderground v.1.13,2013-09-26 19:33:00,
2013-09-26 14:36:00,74.6,58.4,29.77,ESE,119,13.0,18.0,57,0.00,,,0.00,Wunderground v.1.13,2013-09-26 19:36:00,
2013-09-26 14:39:00,74.5,57.8,29.77,ESE,116,14.0,18.0,56,0.00,,,0.00,Wunderground v.1.13,2013-09-26 19:39:00,
2013-09-26 14:40:00,74.6,57.9,29.77,SE,126,14.0,14.0,56,0.00,,,0.00,Wunderground v.1.13,2013-09-26 19:40:00,
2013-09-26 14:43:00,74.6,57.9,29.77,SSE,159,15.0,23.0,56,0.00,,,0.00,Wunderground v.1.13,2013-09-26 19:43:00,
2013-09-26 14:44:00,74.6,57.9,29.77,ESE,119,16.0,23.0,56,0.00,,,0.00,Wunderground v.1.13,2013-09-26 19:44:00,
2013-09-26 14:47:00,74.7,58.0,29.77,ESE,115,15.0,26.0,56,0.00,,,0.00,Wunderground v.1.13,2013-09-26 19:47:00,
2013-09-26 14:49:00,74.8,58.1,29.77,SE,133,15.0,26.0,56,0.00,,,0.00,Wunderground v.1.13,2013-09-26 19:49:00,
2013-09-26 14:52:00,74.7,58.0,29.77,SE,126,15.0,19.0,56,0.00,,,0.00,Wunderground v.1.13,2013-09-26 19:52:00,
2013-09-26 14:54:00,74.7,58.0,29.77,ESE,120,15.0,19.0,56,0.00,,,0.00,Wunderground v.1.13,2013-09-26 19:54:00,
2013-09-26 14:56:00,74.8,58.5,29.77,SSE,159,15.0,15.0,57,0.00,,,0.00,Wunderground v.1.13,2013-09-26 19:56:00,
2013-09-26 14:57:00,74.9,58.6,29.77,SE,129,15.0,15.0,57,0.00,,,0.00,Wunderground v.1.13,2013-09-26 19:57:00,
2013-09-26 15:01:00,75.2,58.9,29.77,ESE,122,12.0,13.0,57,0.00,,,0.00,Wunderground v.1.13,2013-09-26 20:01:00,
2013-09-26 15:02:00,75.3,58.5,29.77,ESE,109,11.0,25.0,56,0.00,,,0.00,Wunderground v.1.13,2013-09-26 20:02:00,
2013-09-26 15:03:00,75.2,57.9,29.77,ESE,119,12.0,25.0,55,0.00,,,0.00,Wunderground v.1.13,2013-09-26 20:03:00,
2013-09-26 15:06:00,75.2,58.4,29.77,ESE,107,12.0,16.0,56,0.00,,,0.00,Wunderground v.1.13,2013-09-26 20:06:00,
2013-09-26 15:10:00,75.3,58.0,29.77,ESE,123,15.0,22.0,55,0.00,,,0.00,Wunderground v.1.13,2013-09-26 20:10:00,
2013-09-26 15:11:00,75.3,58.5,29.77,SSE,155,15.0,22.0,56,0.00,,,0.00,Wunderground v.1.13,2013-09-26 20:11:00,
2013-09-26 15:12:00,75.3,58.5,29.76,SE,136,16.0,22.0,56,0.00,,,0.00,Wunderground v.1.13,2013-09-26 20:12:00,
2013-09-26 15:14:00,75.3,58.5,29.76,ESE,114,18.0,22.0,56,0.00,,,0.00,Wunderground v.1.13,2013-09-26 20:14:00,
2013-09-26 15:18:00,75.4,58.6,29.76,ESE,116,18.0,24.0,56,0.00,,,0.00,Wunderground v.1.13,2013-09-26 20:18:00,
2013-09-26 15:19:00,75.5,59.2,29.76,ESE,115,18.0,24.0,57,0.00,,,0.00,Wunderground v.1.13,2013-09-26 20:19:00,
2013-09-26 15:20:00,75.5,58.7,29.76,ESE,118,17.0,17.0,56,0.00,,,0.00,Wunderground v.1.13,2013-09-26 20:20:00,
2013-09-26 15:23:00,75.6,58.8,29.76,SE,135,15.0,17.0,56,0.00,,,0.00,Wunderground v.1.13,2013-09-26 20:23:00,
2013-09-26 15:25:00,75.7,58.4,29.75,SE,125,14.0,14.0,55,0.00,,,0.00,Wunderground v.1.13,2013-09-26 20:25:00,
2013-09-26 15:26:00,75.7,58.9,29.75,ESE,119,14.0,14.0,56,0.00,,,0.00,Wunderground v.1.13,2013-09-26 20:26:00,
2013-09-26 15:29:00,75.9,58.1,29.75,ESE,115,13.0,21.0,54,0.00,,,0.00,Wunderground v.1.13,2013-09-26 20:29:00,
2013-09-26 15:30:00,76.0,58.7,29.75,ESE,109,13.0,13.0,55,0.00,,,0.00,Wunderground v.1.13,2013-09-26 20:30:00,
2013-09-26 15:31:00,76.0,58.7,29.75,SE,125,13.0,13.0,55,0.00,,,0.00,Wunderground v.1.13,2013-09-26 20:31:00,
2013-09-26 15:34:00,76.2,58.9,29.75,ESE,104,13.0,15.0,55,0.00,,,0.00,Wunderground v.1.13,2013-09-26 20:34:00,
2013-09-26 15:36:00,76.1,58.8,29.76,SE,132,13.0,22.0,55,0.00,,,0.00,Wunderground v.1.13,2013-09-26 20:36:00,
2013-09-26 15:37:00,76.1,59.3,29.76,SE,126,13.0,22.0,56,0.00,,,0.00,Wunderground v.1.13,2013-09-26 20:37:00,
2013-09-26 15:42:00,76.0,58.7,29.75,East,99,15.0,23.0,55,0.00,,,0.00,Wunderground v.1.13,2013-09-26 20:42:00,
2013-09-26 15:45:00,76.1,58.8,29.75,ESE,105,15.0,16.0,55,0.00,,,0.00,Wunderground v.1.13,2013-09-26 20:45:00,
2013-09-26 15:47:00,76.2,59.4,29.75,ESE,115,15.0,16.0,56,0.00,,,0.00,Wunderground v.1.13,2013-09-26 20:47:00,
2013-09-26 15:48:00,76.2,58.9,29.75,ESE,114,14.0,16.0,55,0.00,,,0.00,Wunderground v.1.13,2013-09-26 20:48:00,
2013-09-26 15:51:00,76.2,59.4,29.75,ESE,103,14.0,14.0,56,0.00,,,0.00,Wunderground v.1.13,2013-09-26 20:51:00,
2013-09-26 15:53:00,76.2,59.9,29.75,East,100,13.0,14.0,57,0.00,,,0.00,Wunderground v.1.13,2013-09-26 20:53:00,
2013-09-26 15:56:00,76.3,58.9,29.75,ESE,118,13.0,13.0,55,0.00,,,0.00,Wunderground v.1.13,2013-09-26 20:56:00,
2013-09-26 15:57:00,76.3,58.9,29.75,ESE,115,13.0,15.0,55,0.00,,,0.00,Wunderground v.1.13,2013-09-26 20:57:00,
2013-09-26 16:01:00,76.5,59.6,29.75,East,99,14.0,14.0,56,0.00,,,0.00,Wunderground v.1.13,2013-09-26 21:01:00,
2013-09-26 16:02:00,76.5,59.6,29.75,SE,133,14.0,14.0,56,0.00,,,0.00,Wunderground v.1.13,2013-09-26 21:02:00,
2013-09-26 16:06:00,76.4,59.0,29.75,ESE,113,16.0,21.0,55,0.00,,,0.00,Wunderground v.1.13,2013-09-26 21:06:00,
2013-09-26 16:07:00,76.4,59.5,29.75,ESE,115,16.0,21.0,56,0.00,,,0.00,Wunderground v.1.13,2013-09-26 21:07:00,
2013-09-26 16:10:00,76.2,59.9,29.74,ESE,117,17.0,17.0,57,0.00,,,0.00,Wunderground v.1.13,2013-09-26 21:10:00,
2013-09-26 16:11:00,76.3,59.4,29.74,SE,130,17.0,23.0,56,0.00,,,0.00,Wunderground v.1.13,2013-09-26 21:11:00,
2013-09-26 16:12:00,76.3,59.9,29.74,ESE,110,17.0,23.0,57,0.00,,,0.00,Wunderground v.1.13,2013-09-26 21:12:00,
2013-09-26 16:14:00,76.3,59.9,29.74,SE,130,17.0,23.0,57,0.00,,,0.00,Wunderground v.1.13,2013-09-26 21:14:00,
2013-09-26 16:16:00,76.3,59.4,29.74,ESE,114,16.0,20.0,56,0.00,,,0.00,Wunderground v.1.13,2013-09-26 21:16:00,
2013-09-26 16:20:00,76.4,60.5,29.74,ESE,103,15.0,15.0,58,0.00,,,0.00,Wunderground v.1.13,2013-09-26 21:20:00,
2013-09-26 16:21:00,76.4,59.5,29.75,SE,126,15.0,19.0,56,0.00,,,0.00,Wunderground v.1.13,2013-09-26 21:21:00,
2013-09-26 16:26:00,76.4,60.0,29.74,East,101,17.0,23.0,57,0.00,,,0.00,Wunderground v.1.13,2013-09-26 21:26:00,
2013-09-26 16:27:00,76.4,60.0,29.74,ESE,116,17.0,23.0,57,0.00,,,0.00,Wunderground v.1.13,2013-09-26 21:27:00,
2013-09-26 16:28:00,76.4,60.0,29.74,ESE,119,17.0,23.0,57,0.00,,,0.00,Wunderground v.1.13,2013-09-26 21:28:00,
2013-09-26 16:31:00,76.4,59.5,29.74,SE,138,17.0,17.0,56,0.00,,,0.00,Wunderground v.1.13,2013-09-26 21:31:00,
2013-09-26 16:32:00,76.4,59.5,29.74,ESE,113,17.0,19.0,56,0.00,,,0.00,Wunderground v.1.13,2013-09-26 21:32:00,
2013-09-26 16:34:00,76.4,59.5,29.74,ESE,115,17.0,26.0,56,0.00,,,0.00,Wunderground v.1.13,2013-09-26 21:34:00,
2013-09-26 16:37:00,76.2,60.3,29.74,ESE,113,16.0,18.0,58,0.00,,,0.00,Wunderground v.1.13,2013-09-26 21:37:00,
2013-09-26 16:38:00,76.2,60.3,29.74,ESE,119,17.0,18.0,58,0.00,,,0.00,Wunderground v.1.13,2013-09-26 21:38:00,
2013-09-26 16:39:00,76.3,59.9,29.74,ESE,111,16.0,19.0,57,0.00,,,0.00,Wunderground v.1.13,2013-09-26 21:39:00,
2013-09-26 16:40:00,76.3,59.9,29.74,ESE,113,16.0,16.0,57,0.00,,,0.00,Wunderground v.1.13,2013-09-26 21:40:00,
2013-09-26 16:42:00,76.4,60.0,29.74,ESE,113,16.0,18.0,57,0.00,,,0.00,Wunderground v.1.13,2013-09-26 21:42:00,
2013-09-26 16:43:00,76.5,60.1,29.74,SE,129,15.0,18.0,57,0.00,,,0.00,Wunderground v.1.13,2013-09-26 21:43:00,
2013-09-26 16:45:00,76.6,60.2,29.74,ESE,123,15.0,21.0,57,0.00,,,0.00,Wunderground v.1.13,2013-09-26 21:45:00,
2013-09-26 16:46:00,76.6,60.2,29.74,ESE,118,15.0,21.0,57,0.00,,,0.00,Wunderground v.1.13,2013-09-26 21:46:00,
2013-09-26 16:48:00,76.5,59.6,29.74,SE,124,15.0,21.0,56,0.00,,,0.00,Wunderground v.1.13,2013-09-26 21:48:00,
2013-09-26 16:52:00,76.5,60.1,29.74,East,98,16.0,18.0,57,0.00,,,0.00,Wunderground v.1.13,2013-09-26 21:52:00,
2013-09-26 16:55:00,76.5,60.1,29.74,SE,132,15.0,15.0,57,0.00,,,0.00,Wunderground v.1.13,2013-09-26 21:55:00,
2013-09-26 16:56:00,76.5,60.1,29.74,ESE,118,15.0,15.0,57,0.00,,,0.00,Wunderground v.1.13,2013-09-26 21:56:00,
2013-09-26 17:00:00,76.5,60.1,29.74,ESE,120,14.0,14.0,57,0.00,,,0.00,Wunderground v.1.13,2013-09-26 22:00:00,
2013-09-26 17:01:00,76.4,60.0,29.74,SE,144,14.0,18.0,57,0.00,,,0.00,Wunderground v.1.13,2013-09-26 22:01:00,
2013-09-26 17:03:00,76.4,60.0,29.74,ESE,111,15.0,21.0,57,0.00,,,0.00,Wunderground v.1.13,2013-09-26 22:03:00,
2013-09-26 17:05:00,76.5,60.1,29.74,SE,130,16.0,16.0,57,0.00,,,0.00,Wunderground v.1.13,2013-09-26 22:05:00,
2013-09-26 17:07:00,76.4,60.0,29.74,East,98,16.0,16.0,57,0.00,,,0.00,Wunderground v.1.13,2013-09-26 22:07:00,
2013-09-26 17:08:00,76.5,60.1,29.74,East,101,16.0,22.0,57,0.00,,,0.00,Wunderground v.1.13,2013-09-26 22:08:00,
2013-09-26 17:10:00,76.7,59.8,29.74,ESE,121,17.0,18.0,56,0.00,,,0.00,Wunderground v.1.13,2013-09-26 22:10:00,
2013-09-26 17:12:00,76.7,60.3,29.74,East,91,18.0,18.0,57,0.00,,,0.00,Wunderground v.1.13,2013-09-26 22:12:00,
2013-09-26 17:13:00,76.6,60.2,29.74,ESE,120,17.0,18.0,57,0.00,,,0.00,Wunderground v.1.13,2013-09-26 22:13:00,
2013-09-26 17:17:00,76.3,60.9,29.74,SE,132,16.0,17.0,59,0.00,,,0.00,Wunderground v.1.13,2013-09-26 22:17:00,
2013-09-26 17:19:00,76.2,60.3,29.74,ESE,121,15.0,17.0,58,0.00,,,0.00,Wunderground v.1.13,2013-09-26 22:19:00,
2013-09-26 17:22:00,76.3,60.4,29.74,ESE,115,14.0,18.0,58,0.00,,,0.00,Wunderground v.1.13,2013-09-26 22:22:00,
2013-09-26 17:24:00,76.3,60.4,29.74,ESE,123,14.0,18.0,58,0.00,,,0.00,Wunderground v.1.13,2013-09-26 22:24:00,
2013-09-26 17:26:00,76.3,60.9,29.74,SE,125,13.0,14.0,59,0.00,,,0.00,Wunderground v.1.13,2013-09-26 22:26:00,
2013-09-26 17:29:00,76.2,60.3,29.74,SE,129,13.0,18.0,58,0.00,,,0.00,Wunderground v.1.13,2013-09-26 22:29:00,
2013-09-26 17:32:00,76.3,60.9,29.74,SE,133,13.0,23.0,59,0.00,,,0.00,Wunderground v.1.13,2013-09-26 22:32:00,
2013-09-26 17:34:00,76.3,60.4,29.74,ESE,110,13.0,23.0,58,0.00,,,0.00,Wunderground v.1.13,2013-09-26 22:34:00,
2013-09-26 17:35:00,76.4,60.5,29.74,SE,127,13.0,16.0,58,0.00,,,0.00,Wunderground v.1.13,2013-09-26 22:35:00,
2013-09-26 17:36:00,76.4,61.0,29.74,SE,126,13.0,16.0,59,0.00,,,0.00,Wunderground v.1.13,2013-09-26 22:36:00,
2013-09-26 17:38:00,76.4,60.5,29.74,ESE,115,13.0,16.0,58,0.00,,,0.00,Wunderground v.1.13,2013-09-26 22:38:00,
2013-09-26 17:40:00,76.4,60.5,29.74,ESE,118,14.0,14.0,58,0.00,,,0.00,Wunderground v.1.13,2013-09-26 22:40:00,
2013-09-26 17:41:00,76.4,60.5,29.74,ESE,110,14.0,18.0,58,0.00,,,0.00,Wunderground v.1.13,2013-09-26 22:41:00,
2013-09-26 17:44:00,76.6,60.2,29.75,ESE,109,14.0,19.0,57,0.00,,,0.00,Wunderground v.1.13,2013-09-26 22:44:00,
2013-09-26 17:46:00,76.6,60.7,29.74,ESE,115,15.0,15.0,58,0.00,,,0.00,Wunderground v.1.13,2013-09-26 22:46:00,
2013-09-26 17:48:00,76.6,60.2,29.74,ESE,118,15.0,15.0,57,0.00,,,0.00,Wunderground v.1.13,2013-09-26 22:48:00,
2013-09-26 17:49:00,76.6,60.2,29.74,SE,126,15.0,16.0,57,0.00,,,0.00,Wunderground v.1.13,2013-09-26 22:49:00,
2013-09-26 17:50:00,76.6,60.7,29.74,ESE,111,15.0,15.0,58,0.00,,,0.00,Wunderground v.1.13,2013-09-26 22:50:00,
2013-09-26 17:53:00,76.4,60.5,29.74,ESE,110,15.0,15.0,58,0.00,,,0.00,Wunderground v.1.13,2013-09-26 22:53:00,
2013-09-26 17:57:00,76.3,60.4,29.74,East,98,15.0,18.0,58,0.00,,,0.00,Wunderground v.1.13,2013-09-26 22:57:00,
2013-09-26 17:58:00,76.2,60.3,29.74,SE,130,15.0,18.0,58,0.00,,,0.00,Wunderground v.1.13,2013-09-26 22:58:00,
2013-09-26 17:59:00,76.3,60.4,29.74,SE,125,14.0,18.0,58,0.00,,,0.00,Wunderground v.1.13,2013-09-26 22:59:00,
2013-09-26 18:00:00,76.2,60.3,29.74,ESE,112,14.0,14.0,58,0.00,,,0.00,Wunderground v.1.13,2013-09-26 23:00:00,
2013-09-26 18:04:00,76.1,60.2,29.74,ESE,119,14.0,19.0,58,0.00,,,0.00,Wunderground v.1.13,2013-09-26 23:04:00,
2013-09-26 18:05:00,76.1,60.7,29.74,ESE,107,14.0,16.0,59,0.00,,,0.00,Wunderground v.1.13,2013-09-26 23:05:00,
2013-09-26 18:06:00,76.0,60.6,29.73,ESE,109,13.0,16.0,59,0.00,,,0.00,Wunderground v.1.13,2013-09-26 23:06:00,
2013-09-26 18:11:00,75.6,61.2,29.74,SE,126,12.0,12.0,61,0.00,,,0.00,Wunderground v.1.13,2013-09-26 23:11:00,
2013-09-26 18:12:00,75.6,60.7,29.74,ESE,106,12.0,12.0,60,0.00,,,0.00,Wunderground v.1.13,2013-09-26 23:12:00,
2013-09-26 18:16:00,75.6,60.7,29.74,ESE,108,12.0,22.0,60,0.00,,,0.00,Wunderground v.1.13,2013-09-26 23:16:00,
2013-09-26 18:18:00,75.6,60.7,29.74,ESE,119,13.0,22.0,60,0.00,,,0.00,Wunderground v.1.13,2013-09-26 23:18:00,
2013-09-26 18:19:00,75.5,61.1,29.74,SE,134,13.0,22.0,61,0.00,,,0.00,Wunderground v.1.13,2013-09-26 23:19:00,
2013-09-26 18:23:00,75.4,60.5,29.74,ESE,117,14.0,18.0,60,0.00,,,0.00,Wunderground v.1.13,2013-09-26 23:23:00,
2013-09-26 18:25:00,75.2,60.8,29.74,ESE,115,13.0,14.0,61,0.00,,,0.00,Wunderground v.1.13,2013-09-26 23:25:00,
2013-09-26 18:27:00,75.2,60.8,29.74,ESE,117,12.0,14.0,61,0.00,,,0.00,Wunderground v.1.13,2013-09-26 23:27:00,
2013-09-26 18:29:00,75.1,61.2,29.74,East,101,12.0,20.0,62,0.00,,,0.00,Wunderground v.1.13,2013-09-26 23:29:00,
2013-09-26 18:34:00,74.9,61.0,29.74,ESE,113,12.0,16.0,62,0.00,,,0.00,Wunderground v.1.13,2013-09-26 23:34:00,
2013-09-26 18:36:00,74.8,60.4,29.74,ESE,117,12.0,21.0,61,0.00,,,0.00,Wunderground v.1.13,2013-09-26 23:36:00,
2013-09-26 18:39:00,74.9,60.5,29.74,ESE,105,13.0,21.0,61,0.00,,,0.00,Wunderground v.1.13,2013-09-26 23:39:00,
2013-09-26 18:41:00,74.8,60.4,29.74,ESE,121,13.0,18.0,61,0.00,,,0.00,Wunderground v.1.13,2013-09-26 23:41:00,
2013-09-26 18:43:00,74.8,60.9,29.74,ESE,118,14.0,18.0,62,0.00,,,0.00,Wunderground v.1.13,2013-09-26 23:43:00,
2013-09-26 18:45:00,74.7,60.4,29.73,ESE,114,14.0,14.0,61,0.00,,,0.00,Wunderground v.1.13,2013-09-26 23:45:00,
2013-09-26 18:48:00,74.6,60.3,29.73,ESE,117,14.0,16.0,61,0.00,,,0.00,Wunderground v.1.13,2013-09-26 23:48:00,
2013-09-26 18:51:00,74.6,60.3,29.73,SE,130,14.0,16.0,61,0.00,,,0.00,Wunderground v.1.13,2013-09-26 23:51:00,
2013-09-26 18:52:00,74.6,60.3,29.74,SE,128,14.0,16.0,61,0.00,,,0.00,Wunderground v.1.13,2013-09-26 23:52:00,
2013-09-26 18:54:00,74.6,60.3,29.73,SE,126,14.0,16.0,61,0.00,,,0.00,Wunderground v.1.13,2013-09-26 23:54:00,
2013-09-26 18:56:00,74.6,60.3,29.74,ESE,109,14.0,14.0,61,0.00,,,0.00,Wunderground v.1.13,2013-09-26 23:56:00,
2013-09-26 19:00:00,74.5,60.6,29.74,ESE,110,14.0,14.0,62,0.00,,,0.00,Wunderground v.1.13,2013-09-27 00:00:00,
2013-09-26 19:01:00,74.4,60.5,29.74,ESE,118,14.0,14.0,62,0.00,,,0.00,Wunderground v.1.13,2013-09-27 00:01:00,
2013-09-26 19:02:00,74.3,60.4,29.74,ESE,119,14.0,14.0,62,0.00,,,0.00,Wunderground v.1.13,2013-09-27 00:02:00,
2013-09-26 19:03:00,74.2,60.8,29.74,East,101,13.0,15.0,63,0.00,,,0.00,Wunderground v.1.13,2013-09-27 00:03:00,
2013-09-26 19:06:00,74.1,60.2,29.74,ESE,115,13.0,16.0,62,0.00,,,0.00,Wunderground v.1.13,2013-09-27 00:06:00,
2013-09-26 19:10:00,73.9,60.5,29.74,East,97,13.0,13.0,63,0.00,,,0.00,Wunderground v.1.13,2013-09-27 00:10:00,
2013-09-26 19:12:00,73.7,60.8,29.74,ESE,120,13.0,13.0,64,0.00,,,0.00,Wunderground v.1.13,2013-09-27 00:12:00,
2013-09-26 19:13:00,73.7,60.3,29.74,ESE,111,13.0,13.0,63,0.00,,,0.00,Wunderground v.1.13,2013-09-27 00:13:00,
2013-09-26 19:14:00,73.6,60.7,29.74,East,99,13.0,16.0,64,0.00,,,0.00,Wunderground v.1.13,2013-09-27 00:14:00,
2013-09-26 19:18:00,73.5,60.6,29.74,SE,130,13.0,18.0,64,0.00,,,0.00,Wunderground v.1.13,2013-09-27 00:18:00,
2013-09-26 19:19:00,73.4,60.5,29.74,SE,130,13.0,18.0,64,0.00,,,0.00,Wunderground v.1.13,2013-09-27 00:19:00,
2013-09-26 19:24:00,73.3,60.8,29.74,SE,132,12.0,21.0,65,0.00,,,0.00,Wunderground v.1.13,2013-09-27 00:24:00,
2013-09-26 19:25:00,73.2,60.7,29.74,ESE,112,12.0,14.0,65,0.00,,,0.00,Wunderground v.1.13,2013-09-27 00:25:00,
2013-09-26 19:28:00,73.2,60.7,29.74,SE,141,12.0,18.0,65,0.00,,,0.00,Wunderground v.1.13,2013-09-27 00:28:00,
2013-09-26 19:29:00,73.2,60.7,29.75,ESE,119,12.0,18.0,65,0.00,,,0.00,Wunderground v.1.13,2013-09-27 00:29:00,
2013-09-26 19:34:00,72.8,60.8,29.75,ESE,113,12.0,12.0,66,0.00,,,0.00,Wunderground v.1.13,2013-09-27 00:34:00,
2013-09-26 19:36:00,72.7,60.3,29.75,ESE,113,12.0,12.0,65,0.00,,,0.00,Wunderground v.1.13,2013-09-27 00:36:00,
2013-09-26 19:37:00,72.8,60.8,29.75,ESE,114,12.0,12.0,66,0.00,,,0.00,Wunderground v.1.13,2013-09-27 00:37:00,
2013-09-26 19:38:00,72.8,60.3,29.75,East,95,12.0,12.0,65,0.00,,,0.00,Wunderground v.1.13,2013-09-27 00:38:00,
2013-09-26 19:41:00,72.7,60.3,29.75,SE,128,11.0,11.0,65,0.00,,,0.00,Wunderground v.1.13,2013-09-27 00:41:00,
2013-09-26 19:43:00,72.6,60.6,29.75,SSE,147,11.0,11.0,66,0.00,,,0.00,Wunderground v.1.13,2013-09-27 00:43:00,
2013-09-26 19:47:00,72.3,60.7,29.75,SE,127,11.0,11.0,67,0.00,,,0.00,Wunderground v.1.13,2013-09-27 00:47:00,
2013-09-26 19:49:00,72.2,60.6,29.75,East,86,11.0,11.0,67,0.00,,,0.00,Wunderground v.1.13,2013-09-27 00:49:00,
2013-09-26 19:51:00,72.2,60.6,29.75,ESE,106,11.0,14.0,67,0.00,,,0.00,Wunderground v.1.13,2013-09-27 00:51:00,
2013-09-26 19:53:00,72.1,60.5,29.75,ESE,106,11.0,14.0,67,0.00,,,0.00,Wunderground v.1.13,2013-09-27 00:53:00,
2013-09-26 19:56:00,71.9,60.3,29.76,ESE,111,11.0,11.0,67,0.00,,,0.00,Wunderground v.1.13,2013-09-27 00:56:00,
2013-09-26 19:59:00,71.8,60.7,29.76,ESE,111,11.0,14.0,68,0.00,,,0.00,Wunderground v.1.13,2013-09-27 00:59:00,
2013-09-26 20:01:00,71.9,60.3,29.76,SE,129,11.0,14.0,67,0.00,,,0.00,Wunderground v.1.13,2013-09-27 01:01:00,
2013-09-26 20:04:00,71.8,60.7,29.76,ESE,109,11.0,14.0,68,0.00,,,0.00,Wunderground v.1.13,2013-09-27 01:04:00,
2013-09-26 20:05:00,71.7,60.6,29.76,ESE,118,11.0,11.0,68,0.00,,,0.00,Wunderground v.1.13,2013-09-27 01:05:00,
2013-09-26 20:08:00,71.7,60.6,29.76,ESE,115,11.0,19.0,68,0.00,,,0.00,Wunderground v.1.13,2013-09-27 01:08:00,
2013-09-26 20:11:00,71.7,60.6,29.76,ESE,117,11.0,11.0,68,0.00,,,0.00,Wunderground v.1.13,2013-09-27 01:11:00,
2013-09-26 20:13:00,71.8,60.2,29.77,ESE,114,12.0,14.0,67,0.00,,,0.00,Wunderground v.1.13,2013-09-27 01:13:00,
2013-09-26 20:14:00,71.8,60.7,29.77,East,101,12.0,14.0,68,0.00,,,0.00,Wunderground v.1.13,2013-09-27 01:14:00,
2013-09-26 20:16:00,71.7,60.6,29.77,ESE,113,12.0,12.0,68,0.00,,,0.00,Wunderground v.1.13,2013-09-27 01:16:00,
2013-09-26 20:18:00,71.7,60.6,29.77,ESE,114,12.0,12.0,68,0.00,,,0.00,Wunderground v.1.13,2013-09-27 01:18:00,
2013-09-26 20:19:00,71.7,60.6,29.77,ESE,107,12.0,12.0,68,0.00,,,0.00,Wunderground v.1.13,2013-09-27 01:19:00,
2013-09-26 20:20:00,71.7,60.6,29.77,ESE,122,12.0,13.0,68,0.00,,,0.00,Wunderground v.1.13,2013-09-27 01:20:00,
2013-09-26 20:24:00,71.7,60.6,29.77,ESE,106,11.0,15.0,68,0.00,,,0.00,Wunderground v.1.13,2013-09-27 01:24:00,
2013-09-26 20:25:00,71.7,60.6,29.77,SE,125,11.0,12.0,68,0.00,,,0.00,Wunderground v.1.13,2013-09-27 01:25:00,
2013-09-26 20:26:00,71.7,60.6,29.77,ESE,109,12.0,12.0,68,0.00,,,0.00,Wunderground v.1.13,2013-09-27 01:26:00,
2013-09-26 20:30:00,71.6,60.5,29.77,ESE,118,11.0,11.0,68,0.00,,,0.00,Wunderground v.1.13,2013-09-27 01:30:00,
2013-09-26 20:31:00,71.5,60.4,29.77,ESE,123,11.0,11.0,68,0.00,,,0.00,Wunderground v.1.13,2013-09-27 01:31:00,
2013-09-26 20:36:00,71.4,60.3,29.77,ESE,102,11.0,11.0,68,0.00,,,0.00,Wunderground v.1.13,2013-09-27 01:36:00,
2013-09-26 20:37:00,71.4,60.3,29.77,ESE,113,11.0,13.0,68,0.00,,,0.00,Wunderground v.1.13,2013-09-27 01:37:00,
2013-09-26 20:38:00,71.4,60.3,29.77,ESE,115,11.0,13.0,68,0.00,,,0.00,Wunderground v.1.13,2013-09-27 01:38:00,
2013-09-26 20:42:00,71.3,60.2,29.77,ESE,116,11.0,14.0,68,0.00,,,0.00,Wunderground v.1.13,2013-09-27 01:42:00,
2013-09-26 20:44:00,71.3,60.2,29.77,SE,126,11.0,14.0,68,0.00,,,0.00,Wunderground v.1.13,2013-09-27 01:44:00,
2013-09-26 20:47:00,71.3,60.2,29.77,ESE,119,12.0,12.0,68,0.00,,,0.00,Wunderground v.1.13,2013-09-27 01:47:00,
2013-09-26 20:48:00,71.3,60.2,29.77,ESE,113,12.0,12.0,68,0.00,,,0.00,Wunderground v.1.13,2013-09-27 01:48:00,
2013-09-26 20:49:00,71.3,60.2,29.77,ESE,113,11.0,12.0,68,0.00,,,0.00,Wunderground v.1.13,2013-09-27 01:49:00,
2013-09-26 20:53:00,71.3,60.2,29.77,ESE,106,12.0,14.0,68,0.00,,,0.00,Wunderground v.1.13,2013-09-27 01:53:00,
2013-09-26 20:54:00,71.2,60.1,29.78,SE,128,11.0,14.0,68,0.00,,,0.00,Wunderground v.1.13,2013-09-27 01:54:00,
2013-09-26 20:57:00,71.1,60.4,29.78,ESE,113,11.0,11.0,69,0.00,,,0.00,Wunderground v.1.13,2013-09-27 01:57:00,
2013-09-26 20:58:00,71.0,60.3,29.78,SE,132,11.0,11.0,69,0.00,,,0.00,Wunderground v.1.13,2013-09-27 01:58:00,
2013-09-26 21:00:00,70.9,60.2,29.78,ESE,116,10.0,10.0,69,0.00,,,0.00,Wunderground v.1.13,2013-09-27 02:00:00,
2013-09-26 21:04:00,70.9,60.2,29.78,ESE,121,9.0,10.0,69,0.00,,,0.00,Wunderground v.1.13,2013-09-27 02:04:00,
2013-09-26 21:05:00,70.8,60.5,29.78,SE,139,9.0,15.0,70,0.00,,,0.00,Wunderground v.1.13,2013-09-27 02:05:00,
2013-09-26 21:06:00,70.8,60.1,29.77,ESE,109,10.0,15.0,69,0.00,,,0.00,Wunderground v.1.13,2013-09-27 02:06:00,
2013-09-26 21:10:00,70.7,60.4,29.78,ESE,117,10.0,10.0,70,0.00,,,0.00,Wunderground v.1.13,2013-09-27 02:10:00,
2013-09-26 21:11:00,70.7,60.4,29.78,SE,128,10.0,10.0,70,0.00,,,0.00,Wunderground v.1.13,2013-09-27 02:11:00,
2013-09-26 21:12:00,70.6,60.3,29.78,SE,127,10.0,10.0,70,0.00,,,0.00,Wunderground v.1.13,2013-09-27 02:12:00,
2013-09-26 21:15:00,70.6,60.3,29.78,ESE,116,10.0,11.0,70,0.00,,,0.00,Wunderground v.1.13,2013-09-27 02:15:00,
2013-09-26 21:17:00,70.5,60.2,29.78,ESE,113,10.0,11.0,70,0.00,,,0.00,Wunderground v.1.13,2013-09-27 02:17:00,
2013-09-26 21:19:00,70.5,60.2,29.78,ESE,113,10.0,14.0,70,0.00,,,0.00,Wunderground v.1.13,2013-09-27 02:19:00,
2013-09-26 21:22:00,70.5,60.2,29.78,ESE,111,10.0,11.0,70,0.00,,,0.00,Wunderground v.1.13,2013-09-27 02:22:00,
2013-09-26 21:23:00,70.5,60.2,29.78,ESE,117,10.0,11.0,70,0.00,,,0.00,Wunderground v.1.13,2013-09-27 02:23:00,
2013-09-26 21:25:00,70.5,60.2,29.78,ESE,113,10.0,10.0,70,0.00,,,0.00,Wunderground v.1.13,2013-09-27 02:25:00,
2013-09-26 21:29:00,70.3,60.1,29.79,SE,126,10.0,12.0,70,0.00,,,0.00,Wunderground v.1.13,2013-09-27 02:29:00,
2013-09-26 21:30:00,70.4,60.1,29.79,ESE,109,10.0,10.0,70,0.00,,,0.00,Wunderground v.1.13,2013-09-27 02:30:00,
2013-09-26 21:35:00,70.3,60.1,29.79,ESE,109,10.0,10.0,70,0.00,,,0.00,Wunderground v.1.13,2013-09-27 02:35:00,
2013-09-26 21:36:00,70.2,60.0,29.79,ESE,110,10.0,10.0,70,0.00,,,0.00,Wunderground v.1.13,2013-09-27 02:36:00,
2013-09-26 21:39:00,70.2,60.4,29.79,ESE,118,10.0,13.0,71,0.00,,,0.00,Wunderground v.1.13,2013-09-27 02:39:00,
2013-09-26 21:42:00,70.2,60.0,29.79,SE,126,10.0,12.0,70,0.00,,,0.00,Wunderground v.1.13,2013-09-27 02:42:00,
2013-09-26 21:44:00,70.1,60.3,29.79,ESE,118,10.0,12.0,71,0.00,,,0.00,Wunderground v.1.13,2013-09-27 02:44:00,
2013-09-26 21:46:00,70.0,60.2,29.79,ESE,107,10.0,10.0,71,0.00,,,0.00,Wunderground v.1.13,2013-09-27 02:46:00,
2013-09-26 21:48:00,70.0,60.2,29.79,SE,130,10.0,10.0,71,0.00,,,0.00,Wunderground v.1.13,2013-09-27 02:48:00,
2013-09-26 21:51:00,69.9,60.1,29.79,SE,130,10.0,11.0,71,0.00,,,0.00,Wunderground v.1.13,2013-09-27 02:51:00,
2013-09-26 21:53:00,70.0,60.2,29.79,ESE,119,10.0,11.0,71,0.00,,,0.00,Wunderground v.1.13,2013-09-27 02:53:00,
2013-09-26 21:55:00,69.9,60.5,29.79,ESE,107,10.0,10.0,72,0.00,,,0.00,Wunderground v.1.13,2013-09-27 02:55:00,
2013-09-26 21:57:00,69.8,60.4,29.79,ESE,120,9.0,10.0,72,0.00,,,0.00,Wunderground v.1.13,2013-09-27 02:57:00,
2013-09-26 21:58:00,69.8,60.0,29.79,ESE,122,9.0,11.0,71,0.00,,,0.00,Wunderground v.1.13,2013-09-27 02:58:00,
2013-09-26 22:00:00,69.8,60.0,29.79,ESE,120,9.0,9.0,71,0.00,,,0.00,Wunderground v.1.13,2013-09-27 03:00:00,
2013-09-26 22:02:00,69.7,60.3,29.79,ESE,103,9.0,11.0,72,0.00,,,0.00,Wunderground v.1.13,2013-09-27 03:02:00,
2013-09-26 22:03:00,69.6,60.2,29.79,ESE,118,9.0,12.0,72,0.00,,,0.00,Wunderground v.1.13,2013-09-27 03:03:00,
2013-09-26 22:04:00,69.6,59.8,29.79,ESE,119,9.0,12.0,71,0.00,,,0.00,Wunderground v.1.13,2013-09-27 03:04:00,
2013-09-26 22:09:00,69.7,59.9,29.79,SE,126,9.0,13.0,71,0.00,,,0.00,Wunderground v.1.13,2013-09-27 03:09:00,
2013-09-26 22:10:00,69.7,60.3,29.79,ESE,117,9.0,10.0,72,0.00,,,0.00,Wunderground v.1.13,2013-09-27 03:10:00,
2013-09-26 22:11:00,69.7,60.3,29.79,ESE,121,10.0,10.0,72,0.00,,,0.00,Wunderground v.1.13,2013-09-27 03:11:00,
2013-09-26 22:14:00,69.6,60.2,29.79,ESE,121,10.0,10.0,72,0.00,,,0.00,Wunderground v.1.13,2013-09-27 03:14:00,
2013-09-26 22:16:00,69.6,60.2,29.79,ESE,123,10.0,10.0,72,0.00,,,0.00,Wunderground v.1.13,2013-09-27 03:16:00,
2013-09-26 22:17:00,69.6,60.2,29.79,ESE,121,9.0,11.0,72,0.00,,,0.00,Wunderground v.1.13,2013-09-27 03:17:00,
2013-09-26 22:18:00,69.5,59.7,29.79,ESE,103,9.0,11.0,71,0.00,,,0.00,Wunderground v.1.13,2013-09-27 03:18:00,
2013-09-26 22:20:00,69.5,60.1,29.79,SE,130,9.0,10.0,72,0.00,,,0.00,Wunderground v.1.13,2013-09-27 03:20:00,
2013-09-26 22:23:00,69.4,60.0,29.80,ESE,119,9.0,10.0,72,0.00,,,0.00,Wunderground v.1.13,2013-09-27 03:23:00,
2013-09-26 22:24:00,69.4,60.0,29.80,ESE,122,9.0,10.0,72,0.00,,,0.00,Wunderground v.1.13,2013-09-27 03:24:00,
2013-09-26 22:25:00,69.4,60.0,29.80,ESE,113,9.0,9.0,72,0.00,,,0.00,Wunderground v.1.13,2013-09-27 03:25:00,
2013-09-26 22:29:00,69.4,60.4,29.80,ESE,113,9.0,16.0,73,0.00,,,0.00,Wunderground v.1.13,2013-09-27 03:29:00,
2013-09-26 22:30:00,69.3,60.3,29.80,ESE,110,9.0,12.0,73,0.00,,,0.00,Wunderground v.1.13,2013-09-27 03:30:00,
2013-09-26 22:31:00,69.2,60.2,29.80,ESE,103,9.0,12.0,73,0.00,,,0.00,Wunderground v.1.13,2013-09-27 03:31:00,
2013-09-26 22:35:00,69.2,60.2,29.80,ESE,110,9.0,11.0,73,0.00,,,0.00,Wunderground v.1.13,2013-09-27 03:35:00,
2013-09-26 22:40:00,69.1,60.1,29.80,ESE,114,9.0,9.0,73,0.00,,,0.00,Wunderground v.1.13,2013-09-27 03:40:00,
2013-09-26 22:41:00,69.1,60.1,29.80,ESE,118,9.0,9.0,73,0.00,,,0.00,Wunderground v.1.13,2013-09-27 03:41:00,
2013-09-26 22:44:00,69.0,60.0,29.80,ESE,119,9.0,10.0,73,0.00,,,0.00,Wunderground v.1.13,2013-09-27 03:44:00,
2013-09-26 22:45:00,69.0,60.0,29.80,ESE,118,9.0,9.0,73,0.00,,,0.00,Wunderground v.1.13,2013-09-27 03:45:00,
2013-09-26 22:48:00,68.9,59.9,29.80,ESE,111,8.0,9.0,73,0.00,,,0.00,Wunderground v.1.13,2013-09-27 03:48:00,
2013-09-26 22:50:00,68.9,59.9,29.80,ESE,119,8.0,11.0,73,0.00,,,0.00,Wunderground v.1.13,2013-09-27 03:50:00,
2013-09-26 22:51:00,68.9,59.9,29.80,ESE,117,9.0,11.0,73,0.00,,,0.00,Wunderground v.1.13,2013-09-27 03:51:00,
2013-09-26 22:52:00,68.8,60.2,29.80,ESE,109,8.0,11.0,74,0.00,,,0.00,Wunderground v.1.13,2013-09-27 03:52:00,
2013-09-26 22:54:00,68.8,59.8,29.80,ESE,111,8.0,11.0,73,0.00,,,0.00,Wunderground v.1.13,2013-09-27 03:54:00,
2013-09-26 22:57:00,68.7,60.1,29.80,ESE,121,9.0,9.0,74,0.00,,,0.00,Wunderground v.1.13,2013-09-27 03:57:00,
2013-09-26 22:59:00,68.7,60.1,29.80,ESE,122,9.0,10.0,74,0.00,,,0.00,Wunderground v.1.13,2013-09-27 03:59:00,
2013-09-26 23:00:00,68.7,60.1,29.80,ESE,120,8.0,8.0,74,0.00,,,0.00,Wunderground v.1.13,2013-09-27 04:00:00,
2013-09-26 23:02:00,68.6,60.0,29.80,ESE,118,8.0,8.0,74,0.00,,,0.00,Wunderground v.1.13,2013-09-27 04:02:00,
2013-09-26 23:03:00,68.6,60.0,29.79,SE,128,8.0,8.0,74,0.00,,,0.00,Wunderground v.1.13,2013-09-27 04:03:00,
2013-09-26 23:04:00,68.6,60.0,29.79,ESE,123,8.0,9.0,74,0.00,,,0.00,Wunderground v.1.13,2013-09-27 04:04:00,
2013-09-26 23:05:00,68.6,60.0,29.79,ESE,117,8.0,8.0,74,0.00,,,0.00,Wunderground v.1.13,2013-09-27 04:05:00,
2013-09-26 23:08:00,68.6,60.0,29.80,ESE,119,8.0,11.0,74,0.00,,,0.00,Wunderground v.1.13,2013-09-27 04:08:00,
2013-09-26 23:10:00,68.6,60.0,29.80,ESE,111,8.0,8.0,74,0.00,,,0.00,Wunderground v.1.13,2013-09-27 04:10:00,
2013-09-26 23:14:00,68.5,59.9,29.80,ESE,111,8.0,10.0,74,0.00,,,0.00,Wunderground v.1.13,2013-09-27 04:14:00,
2013-09-26 23:15:00,68.5,60.3,29.80,SE,129,8.0,10.0,75,0.00,,,0.00,Wunderground v.1.13,2013-09-27 04:15:00,
2013-09-26 23:16:00,68.5,59.9,29.80,ESE,117,8.0,10.0,74,0.00,,,0.00,Wunderground v.1.13,2013-09-27 04:16:00,
2013-09-26 23:17:00,68.5,59.9,29.80,ESE,122,8.0,10.0,74,0.00,,,0.00,Wunderground v.1.13,2013-09-27 04:17:00,
2013-09-26 23:20:00,68.4,59.8,29.80,ESE,115,8.0,8.0,74,0.00,,,0.00,Wunderground v.1.13,2013-09-27 04:20:00,
2013-09-26 23:22:00,68.4,59.8,29.80,ESE,122,8.0,9.0,74,0.00,,,0.00,Wunderground v.1.13,2013-09-27 04:22:00,
2013-09-26 23:25:00,68.3,60.1,29.80,ESE,103,8.0,9.0,75,0.00,,,0.00,Wunderground v.1.13,2013-09-27 04:25:00,
2013-09-26 23:27:00,68.3,60.1,29.80,ESE,117,8.0,9.0,75,0.00,,,0.00,Wunderground v.1.13,2013-09-27 04:27:00,
2013-09-26 23:28:00,68.3,60.1,29.80,ESE,115,8.0,9.0,75,0.00,,,0.00,Wunderground v.1.13,2013-09-27 04:28:00,
2013-09-26 23:30:00,68.2,60.0,29.81,ESE,110,7.0,7.0,75,0.00,,,0.00,Wunderground v.1.13,2013-09-27 04:30:00,
2013-09-26 23:32:00,68.2,60.0,29.80,ESE,113,7.0,7.0,75,0.00,,,0.00,Wunderground v.1.13,2013-09-27 04:32:00,
2013-09-26 23:33:00,68.1,59.9,29.80,ESE,118,7.0,7.0,75,0.00,,,0.00,Wunderground v.1.13,2013-09-27 04:33:00,
2013-09-26 23:35:00,68.1,59.9,29.81,ESE,116,7.0,8.0,75,0.00,,,0.00,Wunderground v.1.13,2013-09-27 04:35:00,
2013-09-26 23:36:00,68.1,59.9,29.81,ESE,119,8.0,8.0,75,0.00,,,0.00,Wunderground v.1.13,2013-09-27 04:36:00,
2013-09-26 23:38:00,68.1,59.9,29.80,ESE,119,8.0,9.0,75,0.00,,,0.00,Wunderground v.1.13,2013-09-27 04:38:00,
2013-09-26 23:41:00,68.0,60.2,29.81,ESE,122,7.0,9.0,76,0.00,,,0.00,Wunderground v.1.13,2013-09-27 04:41:00,
2013-09-26 23:42:00,68.0,59.8,29.81,SE,125,7.0,9.0,75,0.00,,,0.00,Wunderground v.1.13,2013-09-27 04:42:00,
2013-09-26 23:43:00,68.0,59.8,29.81,ESE,112,8.0,10.0,75,0.00,,,0.00,Wunderground v.1.13,2013-09-27 04:43:00,
2013-09-26 23:45:00,68.0,59.8,29.81,ESE,114,8.0,9.0,75,0.00,,,0.00,Wunderground v.1.13,2013-09-27 04:45:00,
2013-09-26 23:48:00,68.0,59.8,29.81,ESE,119,8.0,9.0,75,0.00,,,0.00,Wunderground v.1.13,2013-09-27 04:48:00,
2013-09-26 23:49:00,68.0,59.8,29.81,ESE,114,8.0,9.0,75,0.00,,,0.00,Wunderground v.1.13,2013-09-27 04:49:00,
2013-09-26 23:50:00,68.0,59.8,29.81,ESE,113,8.0,9.0,75,0.00,,,0.00,Wunderground v.1.13,2013-09-27 04:50:00,
2013-09-26 23:51:00,68.0,59.8,29.81,ESE,117,8.0,9.0,75,0.00,,,0.00,Wunderground v.1.13,2013-09-27 04:51:00,
2013-09-26 23:52:00,68.0,59.8,29.81,ESE,113,7.0,9.0,75,0.00,,,0.00,Wunderground v.1.13,2013-09-27 04:52:00,
2013-09-26 23:54:00,68.0,59.8,29.81,ESE,121,7.0,9.0,75,0.00,,,0.00,Wunderground v.1.13,2013-09-27 04:54:00,
2013-09-26 23:55:00,68.0,59.8,29.81,ESE,119,7.0,7.0,75,0.00,,,0.00,Wunderground v.1.13,2013-09-27 04:55:00,
2013-09-26 23:57:00,67.9,59.7,29.82,ESE,119,7.0,9.0,75,0.00,,,0.00,Wunderground v.1.13,2013-09-27 04:57:00,
2013-09-26 23:59:00,68.0,59.8,29.81,ESE,123,7.0,9.0,75,0.00,,,0.00,Wunderground v.1.13,2013-09-27 04:59:00,